Wetterdaten: Freitag, 25.10.2013
Datum Zeit Temp. Aussen +5cm Feuchte Auss Luftdruck Regen Sonnenschein Regendauer UV Solar Windben
25.10.2013 00:00 10,3 C 8,3 C 98 % 1016,3 hPa 0,0 l/m 0 min 0 min 0,0 UV-I 0 W/m 0,0 km/h (0 Bft)
25.10.2013 00:02 10,3 C 8,3 C 98 % 1016,3 hPa 0,0 l/m 0 min 0 min 0,0 UV-I 0 W/m 2,6 km/h (1 Bft)
25.10.2013 00:06 10,4 C 8,9 C 98 % 1016,2 hPa 0,0 l/m 0 min 0 min 0,0 UV-I 0 W/m 5,1 km/h (1 Bft)
25.10.2013 00:08 10,4 C 8,9 C 98 % 1016,3 hPa 0,0 l/m 0 min 0 min 0,0 UV-I 0 W/m 7,7 km/h (2 Bft)
25.10.2013 00:10 10,5 C 8,9 C 98 % 1016,3 hPa 0,0 l/m 0 min 0 min 0,0 UV-I 0 W/m 5,1 km/h (1 Bft)
25.10.2013 00:12 10,4 C 8,9 C 98 % 1016,2 hPa 0,0 l/m 0 min 0 min 0,0 UV-I 0 W/m 7,7 km/h (2 Bft)
25.10.2013 00:14 10,4 C 8,9 C 98 % 1016,2 hPa 0,0 l/m 0 min 0 min 0,0 UV-I 0 W/m 2,6 km/h (1 Bft)
25.10.2013 00:16 10,5 C 8,9 C 98 % 1016,2 hPa 0,0 l/m 0 min 0 min 0,0 UV-I 0 W/m 0,0 km/h (0 Bft)
25.10.2013 00:18 10,5 C 8,9 C 98 % 1016,2 hPa 0,0 l/m 0 min 0 min 0,0 UV-I 0 W/m 0,0 km/h (0 Bft)
25.10.2013 00:20 10,5 C 8,9 C 97 % 1016,1 hPa 0,0 l/m 0 min 0 min 0,0 UV-I 0 W/m 0,0 km/h (0 Bft)
25.10.2013 00:22 10,5 C 8,9 C 97 % 1016,1 hPa 0,0 l/m 0 min 0 min 0,0 UV-I 0 W/m 0,0 km/h (0 Bft)
25.10.2013 00:24 10,5 C 8,9 C 97 % 1016,1 hPa 0,0 l/m 0 min 0 min 0,0 UV-I 0 W/m 0,0 km/h (0 Bft)
25.10.2013 00:26 10,5 C 8,9 C 98 % 1016,1 hPa 0,0 l/m 0 min 0 min 0,0 UV-I 0 W/m 0,0 km/h (0 Bft)
25.10.2013 00:28 10,6 C 8,9 C 98 % 1016,0 hPa 0,0 l/m 0 min 0 min 0,0 UV-I 0 W/m 0,0 km/h (0 Bft)
25.10.2013 00:30 10,6 C 8,9 C 98 % 1016,1 hPa 0,0 l/m 0 min 0 min 0,0 UV-I 0 W/m 0,0 km/h (0 Bft)
25.10.2013 00:32 10,6 C 8,9 C 98 % 1016,0 hPa 0,0 l/m 0 min 0 min 0,0 UV-I 0 W/m 0,0 km/h (0 Bft)
25.10.2013 00:34 10,6 C 8,9 C 98 % 1016,0 hPa 0,0 l/m 0 min 0 min 0,0 UV-I 0 W/m 0,0 km/h (0 Bft)
25.10.2013 00:36 10,5 C 8,9 C 98 % 1015,9 hPa 0,0 l/m 0 min 0 min 0,0 UV-I 0 W/m 0,0 km/h (0 Bft)
25.10.2013 00:38 10,5 C 8,9 C 98 % 1015,9 hPa 0,0 l/m 0 min 0 min 0,0 UV-I 0 W/m 0,0 km/h (0 Bft)
25.10.2013 00:40 10,5 C 8,9 C 98 % 1015,9 hPa 0,0 l/m 0 min 0 min 0,0 UV-I 0 W/m 0,0 km/h (0 Bft)
25.10.2013 00:42 10,5 C 8,9 C 98 % 1015,9 hPa 0,0 l/m 0 min 0 min 0,0 UV-I 0 W/m 0,0 km/h (0 Bft)
25.10.2013 00:44 10,5 C 8,9 C 98 % 1015,9 hPa 0,0 l/m 0 min 0 min 0,0 UV-I 0 W/m 2,6 km/h (1 Bft)
25.10.2013 00:46 10,5 C 8,9 C 98 % 1015,8 hPa 0,0 l/m 0 min 0 min 0,0 UV-I 0 W/m 0,0 km/h (0 Bft)
25.10.2013 00:48 10,5 C 8,9 C 98 % 1015,8 hPa 0,0 l/m 0 min 0 min 0,0 UV-I 0 W/m 0,0 km/h (0 Bft)
25.10.2013 00:50 10,6 C 8,9 C 98 % 1015,7 hPa 0,0 l/m 0 min 0 min 0,0 UV-I 0 W/m 0,0 km/h (0 Bft)
25.10.2013 00:52 10,6 C 8,9 C 98 % 1015,6 hPa 0,0 l/m 0 min 0 min 0,0 UV-I 0 W/m 0,0 km/h (0 Bft)
25.10.2013 00:54 10,6 C 8,9 C 98 % 1015,6 hPa 0,0 l/m 0 min 0 min 0,0 UV-I 0 W/m 0,0 km/h (0 Bft)
25.10.2013 00:56 10,6 C 8,9 C 98 % 1015,8 hPa 0,0 l/m 0 min 0 min 0,0 UV-I 0 W/m 0,0 km/h (0 Bft)
25.10.2013 00:58 10,6 C 8,9 C 98 % 1015,8 hPa 0,0 l/m 0 min 0 min 0,0 UV-I 0 W/m 0,0 km/h (0 Bft)
25.10.2013 01:00 10,6 C 8,9 C 98 % 1015,8 hPa 0,0 l/m 0 min 0 min 0,0 UV-I 0 W/m 0,0 km/h (0 Bft)
25.10.2013 01:02 10,6 C 8,9 C 98 % 1015,8 hPa 0,0 l/m 0 min 0 min 0,0 UV-I 0 W/m 0,0 km/h (0 Bft)
25.10.2013 01:06 10,6 C 8,9 C 98 % 1015,6 hPa 0,0 l/m 0 min 0 min 0,0 UV-I 0 W/m 2,6 km/h (1 Bft)
25.10.2013 01:08 10,6 C 8,9 C 98 % 1015,7 hPa 0,0 l/m 0 min 0 min 0,0 UV-I 0 W/m 0,0 km/h (0 Bft)
25.10.2013 01:10 10,5 C 8,9 C 98 % 1015,7 hPa 0,0 l/m 0 min 0 min 0,0 UV-I 0 W/m 0,0 km/h (0 Bft)
25.10.2013 01:12 10,6 C 8,9 C 98 % 1015,7 hPa 0,0 l/m 0 min 0 min 0,0 UV-I 0 W/m 0,0 km/h (0 Bft)
25.10.2013 01:14 10,6 C 8,9 C 98 % 1015,6 hPa 0,0 l/m 0 min 0 min 0,0 UV-I 0 W/m 0,0 km/h (0 Bft)
25.10.2013 01:16 10,6 C 8,9 C 98 % 1015,6 hPa 0,0 l/m 0 min 0 min 0,0 UV-I 0 W/m 2,6 km/h (1 Bft)
25.10.2013 01:18 10,6 C 8,9 C 98 % 1015,5 hPa 0,0 l/m 0 min 0 min 0,0 UV-I 0 W/m 0,0 km/h (0 Bft)
25.10.2013 01:20 10,6 C 8,9 C 98 % 1015,5 hPa 0,0 l/m 0 min 0 min 0,0 UV-I 0 W/m 0,0 km/h (0 Bft)
25.10.2013 01:22 10,7 C 8,9 C 98 % 1015,5 hPa 0,0 l/m 0 min 0 min 0,0 UV-I 0 W/m 2,6 km/h (1 Bft)
25.10.2013 01:24 10,7 C 9,4 C 98 % 1015,5 hPa 0,0 l/m 0 min 0 min 0,0 UV-I 0 W/m 0,0 km/h (0 Bft)
25.10.2013 01:26 10,8 C 9,4 C 98 % 1015,5 hPa 0,0 l/m 0 min 0 min 0,0 UV-I 0 W/m 0,0 km/h (0 Bft)
25.10.2013 01:28 10,8 C 9,4 C 98 % 1015,5 hPa 0,0 l/m 0 min 0 min 0,0 UV-I 0 W/m 10,3 km/h (2 Bft)
25.10.2013 01:30 10,9 C 9,4 C 98 % 1015,5 hPa 0,0 l/m 0 min 0 min 0,0 UV-I 0 W/m 10,3 km/h (2 Bft)
25.10.2013 01:32 10,9 C 9,4 C 98 % 1015,4 hPa 0,0 l/m 0 min 0 min 0,0 UV-I 0 W/m 10,3 km/h (2 Bft)
25.10.2013 01:34 10,9 C 9,4 C 98 % 1015,4 hPa 0,0 l/m 0 min 0 min 0,0 UV-I 0 W/m 5,1 km/h (1 Bft)
25.10.2013 01:36 11,0 C 9,4 C 98 % 1015,3 hPa 0,0 l/m 0 min 0 min 0,0 UV-I 0 W/m 2,6 km/h (1 Bft)
25.10.2013 01:38 11,1 C 9,4 C 98 % 1015,3 hPa 0,0 l/m 0 min 0 min 0,0 UV-I 0 W/m 0,0 km/h (0 Bft)
25.10.2013 01:40 11,1 C 9,4 C 98 % 1015,3 hPa 0,0 l/m 0 min 0 min 0,0 UV-I 0 W/m 7,7 km/h (2 Bft)
25.10.2013 01:42 11,1 C 10,0 C 98 % 1015,4 hPa 0,0 l/m 0 min 0 min 0,0 UV-I 0 W/m 7,7 km/h (2 Bft)
25.10.2013 01:44 11,2 C 10,0 C 98 % 1015,3 hPa 0,0 l/m 0 min 0 min 0,0 UV-I 0 W/m 10,3 km/h (2 Bft)
25.10.2013 01:46 11,2 C 10,0 C 98 % 1015,3 hPa 0,0 l/m 0 min 0 min 0,0 UV-I 0 W/m 0,0 km/h (0 Bft)
25.10.2013 01:48 11,2 C 10,0 C 98 % 1015,3 hPa 0,0 l/m 0 min 0 min 0,0 UV-I 0 W/m 7,7 km/h (2 Bft)
25.10.2013 01:50 11,2 C 10,0 C 98 % 1015,3 hPa 0,0 l/m 0 min 0 min 0,0 UV-I 0 W/m 0,0 km/h (0 Bft)
25.10.2013 01:52 11,2 C 10,0 C 98 % 1015,3 hPa 0,0 l/m 0 min 0 min 0,0 UV-I 0 W/m 12,9 km/h (3 Bft)
25.10.2013 01:54 11,2 C 10,0 C 98 % 1015,3 hPa 0,0 l/m 0 min 0 min 0,0 UV-I 0 W/m 2,6 km/h (1 Bft)
25.10.2013 01:56 11,2 C 10,0 C 98 % 1015,2 hPa 0,0 l/m 0 min 0 min 0,0 UV-I 0 W/m 10,3 km/h (2 Bft)
25.10.2013 01:58 11,2 C 10,0 C 98 % 1015,2 hPa 0,0 l/m 0 min 0 min 0,0 UV-I 0 W/m 2,6 km/h (1 Bft)
25.10.2013 02:00 11,2 C 10,0 C 98 % 1015,4 hPa 0,0 l/m 0 min 0 min 0,0 UV-I 0 W/m 10,3 km/h (2 Bft)
25.10.2013 02:02 11,2 C 10,0 C 98 % 1015,3 hPa 0,0 l/m 0 min 0 min 0,0 UV-I 0 W/m 5,1 km/h (1 Bft)
25.10.2013 02:06 11,2 C 10,0 C 98 % 1015,3 hPa 0,0 l/m 0 min 0 min 0,0 UV-I 0 W/m 7,7 km/h (2 Bft)
25.10.2013 02:08 11,1 C 9,4 C 98 % 1015,3 hPa 0,0 l/m 0 min 0 min 0,0 UV-I 0 W/m 7,7 km/h (2 Bft)
25.10.2013 02:10 11,1 C 9,4 C 98 % 1015,2 hPa 0,0 l/m 0 min 0 min 0,0 UV-I 0 W/m 5,1 km/h (1 Bft)
25.10.2013 02:12 11,1 C 10,0 C 98 % 1015,3 hPa 0,0 l/m 0 min 0 min 0,0 UV-I 0 W/m 5,1 km/h (1 Bft)
25.10.2013 02:14 11,1 C 10,0 C 98 % 1015,2 hPa 0,0 l/m 0 min 0 min 0,0 UV-I 0 W/m 7,7 km/h (2 Bft)
25.10.2013 02:16 11,1 C 10,0 C 98 % 1015,3 hPa 0,0 l/m 0 min 0 min 0,0 UV-I 0 W/m 0,0 km/h (0 Bft)
25.10.2013 02:18 11,1 C 10,0 C 98 % 1015,2 hPa 0,0 l/m 0 min 0 min 0,0 UV-I 0 W/m 10,3 km/h (2 Bft)
25.10.2013 02:20 11,1 C 10,0 C 98 % 1015,2 hPa 0,0 l/m 0 min 0 min 0,0 UV-I 0 W/m 7,7 km/h (2 Bft)
25.10.2013 02:22 11,1 C 10,0 C 98 % 1015,2 hPa 0,0 l/m 0 min 0 min 0,0 UV-I 0 W/m 10,3 km/h (2 Bft)
25.10.2013 02:24 11,1 C 10,0 C 98 % 1015,2 hPa 0,0 l/m 0 min 0 min 0,0 UV-I 0 W/m 0,0 km/h (0 Bft)
25.10.2013 02:26 11,1 C 10,0 C 98 % 1015,2 hPa 0,0 l/m 0 min 0 min 0,0 UV-I 0 W/m 5,1 km/h (1 Bft)
25.10.2013 02:28 11,1 C 10,0 C 98 % 1015,2 hPa 0,0 l/m 0 min 0 min 0,0 UV-I 0 W/m 5,1 km/h (1 Bft)
25.10.2013 02:30 11,1 C 10,0 C 98 % 1015,1 hPa 0,0 l/m 0 min 0 min 0,0 UV-I 0 W/m 5,1 km/h (1 Bft)
25.10.2013 02:32 11,1 C 10,0 C 98 % 1015,1 hPa 0,0 l/m 0 min 0 min 0,0 UV-I 0 W/m 2,6 km/h (1 Bft)
25.10.2013 02:34 11,2 C 10,0 C 98 % 1015,1 hPa 0,0 l/m 0 min 0 min 0,0 UV-I 0 W/m 0,0 km/h (0 Bft)
25.10.2013 02:36 11,1 C 10,0 C 98 % 1015,1 hPa 0,0 l/m 0 min 0 min 0,0 UV-I 0 W/m 2,6 km/h (1 Bft)
25.10.2013 02:38 11,2 C 10,0 C 98 % 1015,0 hPa 0,0 l/m 0 min 0 min 0,0 UV-I 0 W/m 0,0 km/h (0 Bft)
25.10.2013 02:40 11,2 C 10,0 C 98 % 1015,0 hPa 0,0 l/m 0 min 0 min 0,0 UV-I 0 W/m 5,1 km/h (1 Bft)
25.10.2013 02:42 11,2 C 10,0 C 98 % 1015,0 hPa 0,0 l/m 0 min 0 min 0,0 UV-I 0 W/m 5,1 km/h (1 Bft)
25.10.2013 02:44 11,2 C 10,0 C 98 % 1014,9 hPa 0,0 l/m 0 min 0 min 0,0 UV-I 0 W/m 0,0 km/h (0 Bft)
25.10.2013 02:46 11,2 C 10,0 C 98 % 1014,9 hPa 0,0 l/m 0 min 0 min 0,0 UV-I 0 W/m 0,0 km/h (0 Bft)
25.10.2013 02:48 11,2 C 10,0 C 98 % 1014,9 hPa 0,0 l/m 0 min 0 min 0,0 UV-I 0 W/m 2,6 km/h (1 Bft)
25.10.2013 02:50 11,2 C 10,0 C 98 % 1014,9 hPa 0,0 l/m 0 min 0 min 0,0 UV-I 0 W/m 0,0 km/h (0 Bft)
25.10.2013 02:52 11,2 C 10,0 C 98 % 1014,9 hPa 0,0 l/m 0 min 0 min 0,0 UV-I 0 W/m 0,0 km/h (0 Bft)
25.10.2013 02:54 11,2 C 10,0 C 98 % 1014,9 hPa 0,0 l/m 0 min 0 min 0,0 UV-I 0 W/m 0,0 km/h (0 Bft)
25.10.2013 02:56 11,2 C 10,0 C 98 % 1014,8 hPa 0,0 l/m 0 min 0 min 0,0 UV-I 0 W/m 12,9 km/h (3 Bft)
25.10.2013 02:58 11,3 C 10,0 C 98 % 1014,8 hPa 0,0 l/m 0 min 0 min 0,0 UV-I 0 W/m 2,6 km/h (1 Bft)
25.10.2013 03:00 11,3 C 10,0 C 98 % 1014,9 hPa 0,0 l/m 0 min 0 min 0,0 UV-I 0 W/m 0,0 km/h (0 Bft)
25.10.2013 03:02 11,3 C 10,0 C 98 % 1014,9 hPa 0,0 l/m 0 min 0 min 0,0 UV-I 0 W/m 0,0 km/h (0 Bft)
25.10.2013 03:06 11,3 C 10,0 C 98 % 1014,9 hPa 0,0 l/m 0 min 0 min 0,0 UV-I 0 W/m 0,0 km/h (0 Bft)
25.10.2013 03:08 11,2 C 10,0 C 98 % 1014,8 hPa 0,0 l/m 0 min 0 min 0,0 UV-I 0 W/m 0,0 km/h (0 Bft)
25.10.2013 03:10 11,2 C 10,0 C 98 % 1014,8 hPa 0,0 l/m 0 min 0 min 0,0 UV-I 0 W/m 2,6 km/h (1 Bft)
25.10.2013 03:12 11,3 C 10,0 C 98 % 1014,8 hPa 0,0 l/m 0 min 0 min 0,0 UV-I 0 W/m 2,6 km/h (1 Bft)
25.10.2013 03:14 11,3 C 10,0 C 98 % 1014,8 hPa 0,0 l/m 0 min 0 min 0,0 UV-I 0 W/m 0,0 km/h (0 Bft)
25.10.2013 03:16 11,3 C 10,0 C 98 % 1014,8 hPa 0,0 l/m 0 min 0 min 0,0 UV-I 0 W/m 2,6 km/h (1 Bft)
25.10.2013 03:18 11,3 C 10,0 C 98 % 1014,7 hPa 0,0 l/m 0 min 0 min 0,0 UV-I 0 W/m 0,0 km/h (0 Bft)
25.10.2013 03:20 11,3 C 10,0 C 97 % 1014,7 hPa 0,0 l/m 0 min 0 min 0,0 UV-I 0 W/m 0,0 km/h (0 Bft)
25.10.2013 03:22 11,3 C 10,0 C 97 % 1014,7 hPa 0,0 l/m 0 min 0 min 0,0 UV-I 0 W/m 0,0 km/h (0 Bft)
25.10.2013 03:24 11,3 C 10,0 C 97 % 1014,6 hPa 0,0 l/m 0 min 0 min 0,0 UV-I 0 W/m 7,7 km/h (2 Bft)
25.10.2013 03:26 11,3 C 10,0 C 97 % 1014,7 hPa 0,0 l/m 0 min 0 min 0,0 UV-I 0 W/m 7,7 km/h (2 Bft)
25.10.2013 03:28 11,3 C 10,0 C 97 % 1014,6 hPa 0,0 l/m 0 min 0 min 0,0 UV-I 0 W/m 2,6 km/h (1 Bft)
25.10.2013 03:30 11,3 C 10,0 C 97 % 1014,5 hPa 0,0 l/m 0 min 0 min 0,0 UV-I 0 W/m 10,3 km/h (2 Bft)
25.10.2013 03:32 11,3 C 10,0 C 97 % 1014,6 hPa 0,0 l/m 0 min 0 min 0,0 UV-I 0 W/m 0,0 km/h (0 Bft)
25.10.2013 03:34 11,3 C 10,0 C 97 % 1014,5 hPa 0,0 l/m 0 min 0 min 0,0 UV-I 0 W/m 2,6 km/h (1 Bft)
25.10.2013 03:36 11,3 C 10,0 C 97 % 1014,5 hPa 0,0 l/m 0 min 0 min 0,0 UV-I 0 W/m 2,6 km/h (1 Bft)
25.10.2013 03:38 11,4 C 10,0 C 97 % 1014,5 hPa 0,0 l/m 0 min 0 min 0,0 UV-I 0 W/m 5,1 km/h (1 Bft)
25.10.2013 03:40 11,4 C 10,0 C 97 % 1014,4 hPa 0,0 l/m 0 min 0 min 0,0 UV-I 0 W/m 0,0 km/h (0 Bft)
25.10.2013 03:42 11,4 C 10,0 C 97 % 1014,5 hPa 0,0 l/m 0 min 0 min 0,0 UV-I 0 W/m 0,0 km/h (0 Bft)
25.10.2013 03:44 11,4 C 10,0 C 97 % 1014,4 hPa 0,0 l/m 0 min 0 min 0,0 UV-I 0 W/m 7,7 km/h (2 Bft)
25.10.2013 03:46 11,4 C 10,0 C 97 % 1014,4 hPa 0,0 l/m 0 min 0 min 0,0 UV-I 0 W/m 5,1 km/h (1 Bft)
25.10.2013 03:48 11,4 C 10,0 C 97 % 1014,4 hPa 0,0 l/m 0 min 0 min 0,0 UV-I 0 W/m 10,3 km/h (2 Bft)
25.10.2013 03:50 11,4 C 10,0 C 97 % 1014,4 hPa 0,0 l/m 0 min 0 min 0,0 UV-I 0 W/m 2,6 km/h (1 Bft)
25.10.2013 03:52 11,4 C 10,0 C 97 % 1014,4 hPa 0,0 l/m 0 min 0 min 0,0 UV-I 0 W/m 0,0 km/h (0 Bft)
25.10.2013 03:54 11,4 C 10,0 C 97 % 1014,3 hPa 0,0 l/m 0 min 0 min 0,0 UV-I 0 W/m 2,6 km/h (1 Bft)
25.10.2013 03:56 11,4 C 10,0 C 97 % 1014,3 hPa 0,0 l/m 0 min 0 min 0,0 UV-I 0 W/m 0,0 km/h (0 Bft)
25.10.2013 03:58 11,4 C 10,0 C 97 % 1014,3 hPa 0,0 l/m 0 min 0 min 0,0 UV-I 0 W/m 2,6 km/h (1 Bft)
25.10.2013 04:00 11,4 C 10,0 C 97 % 1014,3 hPa 0,0 l/m 0 min 0 min 0,0 UV-I 0 W/m 5,1 km/h (1 Bft)
25.10.2013 04:02 11,4 C 10,0 C 97 % 1014,3 hPa 0,0 l/m 0 min 0 min 0,0 UV-I 0 W/m 0,0 km/h (0 Bft)
25.10.2013 04:06 11,4 C 10,0 C 97 % 1014,2 hPa 0,0 l/m 0 min 0 min 0,0 UV-I 0 W/m 2,6 km/h (1 Bft)
25.10.2013 04:08 11,4 C 10,0 C 97 % 1014,3 hPa 0,0 l/m 0 min 0 min 0,0 UV-I 0 W/m 0,0 km/h (0 Bft)
25.10.2013 04:10 11,4 C 10,0 C 97 % 1014,2 hPa 0,0 l/m 0 min 0 min 0,0 UV-I 0 W/m 0,0 km/h (0 Bft)
25.10.2013 04:12 11,4 C 10,0 C 97 % 1014,1 hPa 0,0 l/m 0 min 0 min 0,0 UV-I 0 W/m 0,0 km/h (0 Bft)
25.10.2013 04:14 11,5 C 10,0 C 97 % 1014,0 hPa 0,0 l/m 0 min 0 min 0,0 UV-I 0 W/m 5,1 km/h (1 Bft)
25.10.2013 04:16 11,5 C 10,0 C 97 % 1014,0 hPa 0,0 l/m 0 min 0 min 0,0 UV-I 0 W/m 10,3 km/h (2 Bft)
25.10.2013 04:18 11,5 C 10,6 C 97 % 1014,0 hPa 0,0 l/m 0 min 0 min 0,0 UV-I 0 W/m 10,3 km/h (2 Bft)
25.10.2013 04:20 11,6 C 10,6 C 97 % 1014,0 hPa 0,0 l/m 0 min 0 min 0,0 UV-I 0 W/m 7,7 km/h (2 Bft)
25.10.2013 04:22 11,6 C 10,6 C 96 % 1014,0 hPa 0,0 l/m 0 min 0 min 0,0 UV-I 0 W/m 7,7 km/h (2 Bft)
25.10.2013 04:24 11,6 C 10,6 C 96 % 1013,9 hPa 0,0 l/m 0 min 0 min 0,0 UV-I 0 W/m 2,6 km/h (1 Bft)
25.10.2013 04:26 11,6 C 10,6 C 96 % 1013,9 hPa 0,0 l/m 0 min 0 min 0,0 UV-I 0 W/m 7,7 km/h (2 Bft)
25.10.2013 04:28 11,6 C 10,6 C 96 % 1013,8 hPa 0,0 l/m 0 min 0 min 0,0 UV-I 0 W/m 2,6 km/h (1 Bft)
25.10.2013 04:30 11,7 C 10,6 C 96 % 1013,9 hPa 0,0 l/m 0 min 0 min 0,0 UV-I 0 W/m 10,3 km/h (2 Bft)
25.10.2013 04:32 11,7 C 10,6 C 96 % 1013,9 hPa 0,0 l/m 0 min 0 min 0,0 UV-I 0 W/m 12,9 km/h (3 Bft)
25.10.2013 04:34 11,7 C 10,6 C 96 % 1013,8 hPa 0,0 l/m 0 min 0 min 0,0 UV-I 0 W/m 10,3 km/h (2 Bft)
25.10.2013 04:36 11,7 C 10,6 C 96 % 1013,8 hPa 0,0 l/m 0 min 0 min 0,0 UV-I 0 W/m 5,1 km/h (1 Bft)
25.10.2013 04:38 11,7 C 10,6 C 96 % 1013,8 hPa 0,0 l/m 0 min 0 min 0,0 UV-I 0 W/m 5,1 km/h (1 Bft)
25.10.2013 04:40 11,7 C 10,6 C 96 % 1013,8 hPa 0,0 l/m 0 min 0 min 0,0 UV-I 0 W/m 7,7 km/h (2 Bft)
25.10.2013 04:42 11,7 C 10,6 C 96 % 1013,8 hPa 0,0 l/m 0 min 0 min 0,0 UV-I 0 W/m 10,3 km/h (2 Bft)
25.10.2013 04:44 11,7 C 10,6 C 96 % 1013,7 hPa 0,0 l/m 0 min 0 min 0,0 UV-I 0 W/m 2,6 km/h (1 Bft)
25.10.2013 04:46 11,8 C 10,6 C 96 % 1013,7 hPa 0,0 l/m 0 min 0 min 0,0 UV-I 0 W/m 10,3 km/h (2 Bft)
25.10.2013 04:48 11,8 C 10,6 C 96 % 1013,6 hPa 0,0 l/m 0 min 0 min 0,0 UV-I 0 W/m 0,0 km/h (0 Bft)
25.10.2013 04:50 11,8 C 10,6 C 96 % 1013,5 hPa 0,0 l/m 0 min 0 min 0,0 UV-I 0 W/m 7,7 km/h (2 Bft)
25.10.2013 04:52 11,8 C 10,6 C 96 % 1013,5 hPa 0,0 l/m 0 min 0 min 0,0 UV-I 0 W/m 12,9 km/h (3 Bft)
25.10.2013 04:54 11,9 C 10,6 C 96 % 1013,5 hPa 0,0 l/m 0 min 0 min 0,0 UV-I 0 W/m 5,1 km/h (1 Bft)
25.10.2013 04:56 11,9 C 10,6 C 96 % 1013,5 hPa 0,0 l/m 0 min 0 min 0,0 UV-I 0 W/m 15,4 km/h (3 Bft)
25.10.2013 04:58 11,9 C 10,6 C 96 % 1013,5 hPa 0,0 l/m 0 min 0 min 0,0 UV-I 0 W/m 7,7 km/h (2 Bft)
25.10.2013 05:00 11,9 C 10,6 C 96 % 1013,6 hPa 0,0 l/m 0 min 0 min 0,0 UV-I 0 W/m 10,3 km/h (2 Bft)
25.10.2013 05:02 11,9 C 10,6 C 96 % 1013,5 hPa 0,0 l/m 0 min 0 min 0,0 UV-I 0 W/m 15,4 km/h (3 Bft)
25.10.2013 05:06 12,0 C 10,6 C 95 % 1013,4 hPa 0,0 l/m 0 min 0 min 0,0 UV-I 0 W/m 12,9 km/h (3 Bft)
25.10.2013 05:08 12,0 C 10,6 C 95 % 1013,3 hPa 0,0 l/m 0 min 0 min 0,0 UV-I 0 W/m 2,6 km/h (1 Bft)
25.10.2013 05:10 12,0 C 10,6 C 95 % 1013,3 hPa 0,0 l/m 0 min 0 min 0,0 UV-I 0 W/m 2,6 km/h (1 Bft)
25.10.2013 05:12 12,0 C 10,6 C 95 % 1013,3 hPa 0,0 l/m 0 min 0 min 0,0 UV-I 0 W/m 5,1 km/h (1 Bft)
25.10.2013 05:14 12,0 C 10,6 C 95 % 1013,2 hPa 0,0 l/m 0 min 0 min 0,0 UV-I 0 W/m 18,0 km/h (3 Bft)
25.10.2013 05:16 12,0 C 10,6 C 95 % 1013,2 hPa 0,0 l/m 0 min 0 min 0,0 UV-I 0 W/m 10,3 km/h (2 Bft)
25.10.2013 05:18 12,0 C 10,6 C 95 % 1013,1 hPa 0,0 l/m 0 min 0 min 0,0 UV-I 0 W/m 7,7 km/h (2 Bft)
25.10.2013 05:20 12,0 C 10,6 C 95 % 1013,1 hPa 0,0 l/m 0 min 0 min 0,0 UV-I 0 W/m 7,7 km/h (2 Bft)
25.10.2013 05:22 12,0 C 10,6 C 95 % 1013,1 hPa 0,0 l/m 0 min 0 min 0,0 UV-I 0 W/m 12,9 km/h (3 Bft)
25.10.2013 05:24 12,0 C 10,6 C 95 % 1013,1 hPa 0,0 l/m 0 min 0 min 0,0 UV-I 0 W/m 7,7 km/h (2 Bft)
25.10.2013 05:26 12,0 C 10,6 C 95 % 1013,1 hPa 0,0 l/m 0 min 0 min 0,0 UV-I 0 W/m 10,3 km/h (2 Bft)
25.10.2013 05:28 12,0 C 10,6 C 95 % 1013,0 hPa 0,0 l/m 0 min 0 min 0,0 UV-I 0 W/m 12,9 km/h (3 Bft)
25.10.2013 05:30 12,0 C 10,6 C 95 % 1013,0 hPa 0,0 l/m 0 min 0 min 0,0 UV-I 0 W/m 10,3 km/h (2 Bft)
25.10.2013 05:32 12,0 C 10,6 C 95 % 1013,0 hPa 0,0 l/m 0 min 0 min 0,0 UV-I 0 W/m 10,3 km/h (2 Bft)
25.10.2013 05:34 12,0 C 10,6 C 95 % 1012,9 hPa 0,0 l/m 0 min 0 min 0,0 UV-I 0 W/m 12,9 km/h (3 Bft)
25.10.2013 05:36 12,1 C 10,6 C 95 % 1012,9 hPa 0,0 l/m 0 min 0 min 0,0 UV-I 0 W/m 5,1 km/h (1 Bft)
25.10.2013 05:38 12,1 C 10,6 C 95 % 1012,8 hPa 0,0 l/m 0 min 0 min 0,0 UV-I 0 W/m 7,7 km/h (2 Bft)
25.10.2013 05:40 12,1 C 10,6 C 94 % 1012,8 hPa 0,0 l/m 0 min 0 min 0,0 UV-I 0 W/m 15,4 km/h (3 Bft)
25.10.2013 05:42 12,1 C 10,6 C 94 % 1012,8 hPa 0,0 l/m 0 min 0 min 0,0 UV-I 0 W/m 10,3 km/h (2 Bft)
25.10.2013 05:44 12,1 C 10,6 C 94 % 1012,7 hPa 0,0 l/m 0 min 0 min 0,0 UV-I 0 W/m 15,4 km/h (3 Bft)
25.10.2013 05:46 12,1 C 11,1 C 94 % 1012,6 hPa 0,0 l/m 0 min 0 min 0,0 UV-I 0 W/m 23,2 km/h (4 Bft)
25.10.2013 05:48 12,2 C 11,1 C 94 % 1012,6 hPa 0,0 l/m 0 min 0 min 0,0 UV-I 0 W/m 15,4 km/h (3 Bft)
25.10.2013 05:50 12,2 C 11,1 C 94 % 1012,6 hPa 0,0 l/m 0 min 0 min 0,0 UV-I 0 W/m 15,4 km/h (3 Bft)
25.10.2013 05:52 12,2 C 11,1 C 94 % 1012,5 hPa 0,0 l/m 0 min 0 min 0,0 UV-I 0 W/m 10,3 km/h (2 Bft)
25.10.2013 05:54 12,2 C 11,1 C 94 % 1012,5 hPa 0,0 l/m 0 min 0 min 0,0 UV-I 0 W/m 12,9 km/h (3 Bft)
25.10.2013 05:56 12,3 C 11,1 C 94 % 1012,5 hPa 0,0 l/m 0 min 0 min 0,0 UV-I 0 W/m 10,3 km/h (2 Bft)
25.10.2013 05:58 12,3 C 11,1 C 94 % 1012,5 hPa 0,0 l/m 0 min 0 min 0,0 UV-I 0 W/m 10,3 km/h (2 Bft)
25.10.2013 06:00 12,3 C 11,1 C 94 % 1012,4 hPa 0,0 l/m 0 min 0 min 0,0 UV-I 0 W/m 12,9 km/h (3 Bft)
25.10.2013 06:02 12,4 C 11,1 C 94 % 1012,5 hPa 0,0 l/m 0 min 0 min 0,0 UV-I 0 W/m 18,0 km/h (3 Bft)
25.10.2013 06:06 12,4 C 11,1 C 94 % 1012,3 hPa 0,0 l/m 0 min 0 min 0,0 UV-I 0 W/m 20,6 km/h (4 Bft)
25.10.2013 06:08 12,4 C 11,1 C 94 % 1012,4 hPa 0,0 l/m 0 min 0 min 0,0 UV-I 0 W/m 10,3 km/h (2 Bft)
25.10.2013 06:10 12,4 C 11,1 C 94 % 1012,3 hPa 0,0 l/m 0 min 0 min 0,0 UV-I 0 W/m 10,3 km/h (2 Bft)
25.10.2013 06:12 12,4 C 11,1 C 93 % 1012,3 hPa 0,0 l/m 0 min 0 min 0,0 UV-I 0 W/m 23,2 km/h (4 Bft)
25.10.2013 06:14 12,5 C 11,1 C 93 % 1012,3 hPa 0,0 l/m 0 min 0 min 0,0 UV-I 0 W/m 18,0 km/h (3 Bft)
25.10.2013 06:16 12,5 C 11,1 C 93 % 1012,2 hPa 0,0 l/m 0 min 0 min 0,0 UV-I 0 W/m 20,6 km/h (4 Bft)
25.10.2013 06:18 12,5 C 11,1 C 93 % 1012,2 hPa 0,0 l/m 0 min 0 min 0,0 UV-I 0 W/m 15,4 km/h (3 Bft)
25.10.2013 06:20 12,5 C 11,1 C 93 % 1012,1 hPa 0,0 l/m 0 min 0 min 0,0 UV-I 0 W/m 12,9 km/h (3 Bft)
25.10.2013 06:22 12,5 C 11,1 C 93 % 1012,2 hPa 0,0 l/m 0 min 0 min 0,0 UV-I 0 W/m 12,9 km/h (3 Bft)
25.10.2013 06:24 12,5 C 11,1 C 93 % 1012,2 hPa 0,0 l/m 0 min 0 min 0,0 UV-I 0 W/m 15,4 km/h (3 Bft)
25.10.2013 06:26 12,5 C 11,1 C 93 % 1012,2 hPa 0,0 l/m 0 min 0 min 0,0 UV-I 0 W/m 15,4 km/h (3 Bft)
25.10.2013 06:28 12,5 C 11,1 C 93 % 1012,2 hPa 0,0 l/m 0 min 0 min 0,0 UV-I 0 W/m 18,0 km/h (3 Bft)
25.10.2013 06:30 12,5 C 11,1 C 93 % 1012,1 hPa 0,0 l/m 0 min 0 min 0,0 UV-I 0 W/m 23,2 km/h (4 Bft)
25.10.2013 06:32 12,5 C 11,1 C 93 % 1012,1 hPa 0,0 l/m 0 min 0 min 0,0 UV-I 0 W/m 12,9 km/h (3 Bft)
25.10.2013 06:34 12,5 C 11,1 C 93 % 1012,1 hPa 0,0 l/m 0 min 0 min 0,0 UV-I 0 W/m 12,9 km/h (3 Bft)
25.10.2013 06:36 12,5 C 11,1 C 93 % 1012,1 hPa 0,0 l/m 0 min 0 min 0,0 UV-I 0 W/m 18,0 km/h (3 Bft)
25.10.2013 06:38 12,5 C 11,1 C 93 % 1012,0 hPa 0,0 l/m 0 min 0 min 0,0 UV-I 0 W/m 7,7 km/h (2 Bft)
25.10.2013 06:40 12,5 C 11,1 C 93 % 1012,0 hPa 0,0 l/m 0 min 0 min 0,0 UV-I 0 W/m 12,9 km/h (3 Bft)
25.10.2013 06:42 12,5 C 11,1 C 93 % 1012,0 hPa 0,0 l/m 0 min 0 min 0,0 UV-I 0 W/m 18,0 km/h (3 Bft)
25.10.2013 06:44 12,5 C 11,1 C 93 % 1012,0 hPa 0,0 l/m 0 min 0 min 0,0 UV-I 0 W/m 15,4 km/h (3 Bft)
25.10.2013 06:46 12,5 C 11,1 C 93 % 1012,0 hPa 0,0 l/m 0 min 0 min 0,0 UV-I 0 W/m 12,9 km/h (3 Bft)
25.10.2013 06:48 12,6 C 11,1 C 93 % 1012,0 hPa 0,0 l/m 0 min 0 min 0,0 UV-I 0 W/m 15,4 km/h (3 Bft)
25.10.2013 06:50 12,6 C 11,1 C 93 % 1012,0 hPa 0,0 l/m 0 min 0 min 0,0 UV-I 0 W/m 12,9 km/h (3 Bft)
25.10.2013 06:52 12,6 C 11,1 C 93 % 1011,8 hPa 0,0 l/m 0 min 0 min 0,0 UV-I 0 W/m 20,6 km/h (4 Bft)
25.10.2013 06:54 12,6 C 11,1 C 93 % 1011,8 hPa 0,0 l/m 0 min 0 min 0,0 UV-I 0 W/m 10,3 km/h (2 Bft)
25.10.2013 06:56 12,6 C 11,1 C 93 % 1011,8 hPa 0,0 l/m 0 min 0 min 0,0 UV-I 0 W/m 10,3 km/h (2 Bft)
25.10.2013 06:58 12,6 C 11,1 C 93 % 1011,8 hPa 0,0 l/m 0 min 0 min 0,0 UV-I 0 W/m 18,0 km/h (3 Bft)
25.10.2013 07:00 12,6 C 11,1 C 93 % 1011,7 hPa 0,0 l/m 0 min 0 min 0,0 UV-I 0 W/m 23,2 km/h (4 Bft)
25.10.2013 07:02 12,6 C 11,1 C 93 % 1011,7 hPa 0,0 l/m 0 min 0 min 0,0 UV-I 0 W/m 18,0 km/h (3 Bft)
25.10.2013 07:06 12,7 C 11,1 C 93 % 1011,6 hPa 0,0 l/m 0 min 0 min 0,0 UV-I 0 W/m 20,6 km/h (4 Bft)
25.10.2013 07:08 12,7 C 11,1 C 93 % 1011,6 hPa 0,0 l/m 0 min 0 min 0,0 UV-I 0 W/m 23,2 km/h (4 Bft)
25.10.2013 07:10 12,7 C 11,1 C 93 % 1011,6 hPa 0,0 l/m 0 min 0 min 0,0 UV-I 0 W/m 15,4 km/h (3 Bft)
25.10.2013 07:12 12,7 C 11,1 C 93 % 1011,4 hPa 0,0 l/m 0 min 0 min 0,0 UV-I 0 W/m 12,9 km/h (3 Bft)
25.10.2013 07:14 12,7 C 11,1 C 93 % 1011,5 hPa 0,0 l/m 0 min 0 min 0,0 UV-I 0 W/m 23,2 km/h (4 Bft)
25.10.2013 07:16 12,7 C 11,1 C 93 % 1011,3 hPa 0,0 l/m 0 min 0 min 0,0 UV-I 0 W/m 18,0 km/h (3 Bft)
25.10.2013 07:18 12,7 C 11,7 C 93 % 1011,3 hPa 0,0 l/m 0 min 0 min 0,0 UV-I 0 W/m 20,6 km/h (4 Bft)
25.10.2013 07:20 12,7 C 11,7 C 92 % 1011,3 hPa 0,0 l/m 0 min 0 min 0,0 UV-I 0 W/m 15,4 km/h (3 Bft)
25.10.2013 07:22 12,7 C 11,7 C 92 % 1011,5 hPa 0,0 l/m 0 min 0 min 0,0 UV-I 0 W/m 18,0 km/h (3 Bft)
25.10.2013 07:24 12,7 C 11,7 C 92 % 1011,5 hPa 0,0 l/m 0 min 0 min 0,0 UV-I 0 W/m 15,4 km/h (3 Bft)
25.10.2013 07:26 12,7 C 11,7 C 92 % 1011,3 hPa 0,0 l/m 0 min 0 min 0,0 UV-I 0 W/m 12,9 km/h (3 Bft)
25.10.2013 07:28 12,8 C 11,7 C 92 % 1011,5 hPa 0,0 l/m 0 min 0 min 0,0 UV-I 0 W/m 12,9 km/h (3 Bft)
25.10.2013 07:30 12,8 C 11,7 C 92 % 1011,4 hPa 0,0 l/m 0 min 0 min 0,0 UV-I 0 W/m 20,6 km/h (4 Bft)
25.10.2013 07:32 12,8 C 11,7 C 92 % 1011,3 hPa 0,0 l/m 0 min 0 min 0,0 UV-I 0 W/m 15,4 km/h (3 Bft)
25.10.2013 07:34 12,8 C 11,7 C 92 % 1011,3 hPa 0,0 l/m 0 min 0 min 0,0 UV-I 0 W/m 15,4 km/h (3 Bft)
25.10.2013 07:36 12,8 C 11,7 C 92 % 1011,2 hPa 0,0 l/m 0 min 0 min 0,0 UV-I 0 W/m 23,2 km/h (4 Bft)
25.10.2013 07:38 12,8 C 11,7 C 92 % 1011,1 hPa 0,0 l/m 0 min 0 min 0,0 UV-I 0 W/m 23,2 km/h (4 Bft)
25.10.2013 07:40 12,8 C 11,7 C 92 % 1011,1 hPa 0,0 l/m 0 min 0 min 0,0 UV-I 0 W/m 15,4 km/h (3 Bft)
25.10.2013 07:42 12,8 C 11,7 C 92 % 1011,1 hPa 0,0 l/m 0 min 0 min 0,0 UV-I 0 W/m 18,0 km/h (3 Bft)
25.10.2013 07:44 12,9 C 11,7 C 92 % 1011,0 hPa 0,0 l/m 0 min 0 min 0,0 UV-I 0 W/m 18,0 km/h (3 Bft)
25.10.2013 07:46 12,9 C 11,7 C 92 % 1011,0 hPa 0,0 l/m 0 min 0 min 0,0 UV-I 0 W/m 20,6 km/h (4 Bft)
25.10.2013 07:48 12,9 C 11,7 C 92 % 1011,0 hPa 0,0 l/m 0 min 0 min 0,0 UV-I 0 W/m 20,6 km/h (4 Bft)
25.10.2013 07:50 12,9 C 11,7 C 92 % 1011,0 hPa 0,0 l/m 0 min 0 min 0,0 UV-I 0 W/m 15,4 km/h (3 Bft)
25.10.2013 07:52 12,9 C 11,7 C 92 % 1010,8 hPa 0,0 l/m 0 min 0 min 0,0 UV-I 0 W/m 15,4 km/h (3 Bft)
25.10.2013 07:54 12,9 C 11,7 C 92 % 1010,8 hPa 0,0 l/m 0 min 0 min 0,0 UV-I 0 W/m 25,7 km/h (4 Bft)
25.10.2013 07:56 12,9 C 11,7 C 92 % 1010,9 hPa 0,0 l/m 0 min 0 min 0,0 UV-I 0 W/m 30,9 km/h (5 Bft)
25.10.2013 07:58 12,9 C 11,7 C 92 % 1011,0 hPa 0,0 l/m 0 min 0 min 0,0 UV-I 0 W/m 23,2 km/h (4 Bft)
25.10.2013 08:00 13,0 C 11,7 C 92 % 1010,9 hPa 0,0 l/m 0 min 0 min 0,0 UV-I 0 W/m 20,6 km/h (4 Bft)
25.10.2013 08:02 13,0 C 11,7 C 92 % 1010,9 hPa 0,0 l/m 0 min 0 min 0,0 UV-I 0 W/m 23,2 km/h (4 Bft)
25.10.2013 08:06 13,0 C 11,7 C 92 % 1011,0 hPa 0,0 l/m 0 min 0 min 0,0 UV-I 0 W/m 15,4 km/h (3 Bft)
25.10.2013 08:08 13,0 C 11,7 C 92 % 1010,9 hPa 0,0 l/m 0 min 0 min 0,0 UV-I 0 W/m 12,9 km/h (3 Bft)
25.10.2013 08:10 13,0 C 11,7 C 92 % 1010,8 hPa 0,0 l/m 0 min 0 min 0,0 UV-I 0 W/m 15,4 km/h (3 Bft)
25.10.2013 08:12 13,0 C 11,7 C 92 % 1010,9 hPa 0,0 l/m 0 min 0 min 0,0 UV-I 0 W/m 33,5 km/h (5 Bft)
25.10.2013 08:14 13,1 C 11,7 C 92 % 1011,0 hPa 0,0 l/m 0 min 0 min 0,0 UV-I 0 W/m 18,0 km/h (3 Bft)
25.10.2013 08:16 13,1 C 11,7 C 92 % 1011,0 hPa 0,0 l/m 0 min 0 min 0,0 UV-I 0 W/m 18,0 km/h (3 Bft)
25.10.2013 08:18 13,1 C 11,7 C 92 % 1011,1 hPa 0,0 l/m 0 min 0 min 0,0 UV-I 0 W/m 15,4 km/h (3 Bft)
25.10.2013 08:20 13,1 C 11,7 C 92 % 1011,1 hPa 0,0 l/m 0 min 0 min 0,0 UV-I 0 W/m 12,9 km/h (3 Bft)
25.10.2013 08:22 13,1 C 11,7 C 92 % 1011,1 hPa 0,0 l/m 0 min 0 min 0,0 UV-I 0 W/m 10,3 km/h (2 Bft)
25.10.2013 08:24 13,1 C 11,7 C 92 % 1011,1 hPa 0,0 l/m 0 min 0 min 0,0 UV-I 0 W/m 15,4 km/h (3 Bft)
25.10.2013 08:26 13,1 C 11,7 C 92 % 1011,2 hPa 0,0 l/m 0 min 0 min 0,0 UV-I 0 W/m 15,4 km/h (3 Bft)
25.10.2013 08:28 13,1 C 11,7 C 92 % 1011,2 hPa 0,0 l/m 0 min 0 min 0,0 UV-I 0 W/m 15,4 km/h (3 Bft)
25.10.2013 08:30 13,1 C 11,7 C 92 % 1011,2 hPa 0,0 l/m 0 min 0 min 0,0 UV-I 0 W/m 12,9 km/h (3 Bft)
25.10.2013 08:32 13,1 C 11,7 C 92 % 1011,2 hPa 0,0 l/m 0 min 0 min 0,0 UV-I 5 W/m 12,9 km/h (3 Bft)
25.10.2013 08:34 13,1 C 11,7 C 91 % 1011,2 hPa 0,0 l/m 0 min 0 min 0,0 UV-I 5 W/m 20,6 km/h (4 Bft)
25.10.2013 08:36 13,2 C 11,7 C 91 % 1011,3 hPa 0,0 l/m 0 min 0 min 0,0 UV-I 7 W/m 15,4 km/h (3 Bft)
25.10.2013 08:38 13,2 C 11,7 C 91 % 1011,3 hPa 0,0 l/m 0 min 0 min 0,0 UV-I 9 W/m 10,3 km/h (2 Bft)
25.10.2013 08:40 13,2 C 11,7 C 91 % 1011,3 hPa 0,0 l/m 0 min 0 min 0,0 UV-I 9 W/m 15,4 km/h (3 Bft)
25.10.2013 08:42 13,2 C 11,7 C 91 % 1011,3 hPa 0,0 l/m 0 min 0 min 0,0 UV-I 9 W/m 15,4 km/h (3 Bft)
25.10.2013 08:44 13,2 C 11,7 C 91 % 1011,3 hPa 0,0 l/m 0 min 0 min 0,0 UV-I 9 W/m 18,0 km/h (3 Bft)
25.10.2013 08:46 13,2 C 11,7 C 92 % 1011,3 hPa 0,0 l/m 0 min 0 min 0,0 UV-I 9 W/m 7,7 km/h (2 Bft)
25.10.2013 08:48 13,2 C 11,7 C 92 % 1011,4 hPa 0,0 l/m 0 min 0 min 0,0 UV-I 9 W/m 15,4 km/h (3 Bft)
25.10.2013 08:50 13,2 C 11,7 C 92 % 1011,4 hPa 0,0 l/m 0 min 0 min 0,0 UV-I 11 W/m 12,9 km/h (3 Bft)
25.10.2013 08:52 13,2 C 11,7 C 91 % 1011,3 hPa 0,0 l/m 0 min 0 min 0,0 UV-I 12 W/m 12,9 km/h (3 Bft)
25.10.2013 08:54 13,3 C 12,2 C 91 % 1011,4 hPa 0,0 l/m 0 min 0 min 0,0 UV-I 14 W/m 20,6 km/h (4 Bft)
25.10.2013 08:56 13,3 C 12,2 C 91 % 1011,4 hPa 0,0 l/m 0 min 0 min 0,0 UV-I 18 W/m 15,4 km/h (3 Bft)
25.10.2013 08:58 13,3 C 12,2 C 91 % 1011,2 hPa 0,0 l/m 0 min 0 min 0,0 UV-I 19 W/m 15,4 km/h (3 Bft)
25.10.2013 09:00 13,3 C 12,2 C 91 % 1011,2 hPa 0,0 l/m 0 min 0 min 0,0 UV-I 21 W/m 12,9 km/h (3 Bft)
25.10.2013 09:02 13,3 C 12,2 C 91 % 1011,2 hPa 0,0 l/m 0 min 0 min 0,0 UV-I 21 W/m 12,9 km/h (3 Bft)
25.10.2013 09:06 13,4 C 12,2 C 91 % 1011,2 hPa 0,0 l/m 0 min 0 min 0,0 UV-I 23 W/m 10,3 km/h (2 Bft)
25.10.2013 09:08 13,4 C 12,2 C 91 % 1011,1 hPa 0,0 l/m 0 min 0 min 0,0 UV-I 25 W/m 18,0 km/h (3 Bft)
25.10.2013 09:10 13,4 C 12,2 C 91 % 1011,2 hPa 0,0 l/m 0 min 0 min 0,0 UV-I 26 W/m 18,0 km/h (3 Bft)
25.10.2013 09:12 13,4 C 12,2 C 91 % 1011,1 hPa 0,0 l/m 0 min 0 min 0,0 UV-I 26 W/m 20,6 km/h (4 Bft)
25.10.2013 09:14 13,5 C 12,2 C 91 % 1011,1 hPa 0,0 l/m 0 min 0 min 0,0 UV-I 26 W/m 15,4 km/h (3 Bft)
25.10.2013 09:16 13,6 C 12,2 C 91 % 1011,2 hPa 0,0 l/m 0 min 0 min 0,0 UV-I 26 W/m 25,7 km/h (4 Bft)
25.10.2013 09:18 13,6 C 12,2 C 91 % 1011,2 hPa 0,0 l/m 0 min 0 min 0,0 UV-I 25 W/m 23,2 km/h (4 Bft)
25.10.2013 09:20 13,6 C 12,2 C 91 % 1011,2 hPa 0,0 l/m 0 min 0 min 0,0 UV-I 25 W/m 18,0 km/h (3 Bft)
25.10.2013 09:22 13,7 C 12,2 C 91 % 1011,1 hPa 0,0 l/m 0 min 0 min 0,0 UV-I 26 W/m 7,7 km/h (2 Bft)
25.10.2013 09:24 13,7 C 12,2 C 90 % 1011,2 hPa 0,0 l/m 0 min 0 min 0,0 UV-I 26 W/m 18,0 km/h (3 Bft)
25.10.2013 09:26 13,7 C 12,2 C 90 % 1011,1 hPa 0,0 l/m 0 min 0 min 0,0 UV-I 26 W/m 18,0 km/h (3 Bft)
25.10.2013 09:28 13,7 C 12,2 C 90 % 1011,1 hPa 0,0 l/m 0 min 0 min 0,0 UV-I 25 W/m 12,9 km/h (3 Bft)
25.10.2013 09:30 13,8 C 12,2 C 90 % 1011,1 hPa 0,0 l/m 0 min 0 min 0,0 UV-I 26 W/m 23,2 km/h (4 Bft)
25.10.2013 09:32 13,8 C 12,2 C 90 % 1011,0 hPa 0,0 l/m 0 min 0 min 0,0 UV-I 32 W/m 20,6 km/h (4 Bft)
25.10.2013 09:34 13,8 C 12,2 C 90 % 1011,0 hPa 0,0 l/m 0 min 0 min 0,0 UV-I 35 W/m 20,6 km/h (4 Bft)
25.10.2013 09:36 13,8 C 12,8 C 90 % 1010,9 hPa 0,0 l/m 0 min 0 min 0,0 UV-I 37 W/m 30,9 km/h (5 Bft)
25.10.2013 09:38 13,8 C 12,8 C 90 % 1010,8 hPa 0,0 l/m 0 min 0 min 0,0 UV-I 37 W/m 15,4 km/h (3 Bft)
25.10.2013 09:40 13,8 C 12,8 C 90 % 1010,9 hPa 0,0 l/m 0 min 0 min 0,0 UV-I 37 W/m 23,2 km/h (4 Bft)
25.10.2013 09:42 13,8 C 12,8 C 90 % 1011,1 hPa 0,0 l/m 0 min 0 min 0,0 UV-I 39 W/m 18,0 km/h (3 Bft)
25.10.2013 09:44 13,8 C 12,8 C 90 % 1011,1 hPa 0,0 l/m 0 min 0 min 0,0 UV-I 40 W/m 23,2 km/h (4 Bft)
25.10.2013 09:46 13,9 C 12,8 C 90 % 1011,1 hPa 0,0 l/m 0 min 0 min 0,0 UV-I 40 W/m 18,0 km/h (3 Bft)
25.10.2013 09:48 13,9 C 12,8 C 90 % 1011,1 hPa 0,0 l/m 0 min 0 min 0,0 UV-I 40 W/m 18,0 km/h (3 Bft)
25.10.2013 09:50 13,9 C 12,8 C 90 % 1011,1 hPa 0,0 l/m 0 min 0 min 0,0 UV-I 47 W/m 28,3 km/h (4 Bft)
25.10.2013 09:52 13,9 C 12,8 C 90 % 1011,2 hPa 0,0 l/m 0 min 0 min 0,0 UV-I 51 W/m 25,7 km/h (4 Bft)
25.10.2013 09:54 14,0 C 12,8 C 90 % 1011,2 hPa 0,0 l/m 0 min 0 min 0,0 UV-I 53 W/m 18,0 km/h (3 Bft)
25.10.2013 09:56 14,0 C 12,8 C 90 % 1011,1 hPa 0,0 l/m 0 min 0 min 0,0 UV-I 53 W/m 28,3 km/h (4 Bft)
25.10.2013 09:58 14,1 C 12,8 C 90 % 1011,1 hPa 0,0 l/m 0 min 0 min 0,0 UV-I 51 W/m 28,3 km/h (4 Bft)
25.10.2013 10:00 14,1 C 12,8 C 90 % 1011,1 hPa 0,0 l/m 0 min 0 min 0,0 UV-I 46 W/m 23,2 km/h (4 Bft)
25.10.2013 10:02 14,1 C 12,8 C 90 % 1011,1 hPa 0,0 l/m 0 min 0 min 0,0 UV-I 42 W/m 28,3 km/h (4 Bft)
25.10.2013 10:06 14,2 C 12,8 C 90 % 1011,2 hPa 0,0 l/m 0 min 0 min 0,0 UV-I 58 W/m 23,2 km/h (4 Bft)
25.10.2013 10:08 14,2 C 12,8 C 90 % 1011,2 hPa 0,0 l/m 0 min 0 min 0,0 UV-I 56 W/m 18,0 km/h (3 Bft)
25.10.2013 10:10 14,2 C 12,8 C 90 % 1011,2 hPa 0,0 l/m 0 min 0 min 0,0 UV-I 53 W/m 15,4 km/h (3 Bft)
25.10.2013 10:12 14,2 C 12,8 C 90 % 1011,2 hPa 0,0 l/m 0 min 0 min 0,0 UV-I 56 W/m 20,6 km/h (4 Bft)
25.10.2013 10:14 14,2 C 12,8 C 90 % 1011,2 hPa 0,0 l/m 0 min 0 min 0,0 UV-I 58 W/m 12,9 km/h (3 Bft)
25.10.2013 10:16 14,2 C 12,8 C 90 % 1011,2 hPa 0,0 l/m 0 min 0 min 0,0 UV-I 56 W/m 7,7 km/h (2 Bft)
25.10.2013 10:18 14,2 C 12,8 C 90 % 1011,3 hPa 0,0 l/m 0 min 0 min 0,0 UV-I 53 W/m 20,6 km/h (4 Bft)
25.10.2013 10:20 14,2 C 12,8 C 90 % 1011,3 hPa 0,0 l/m 0 min 0 min 0,0 UV-I 53 W/m 12,9 km/h (3 Bft)
25.10.2013 10:22 14,2 C 12,8 C 90 % 1011,3 hPa 0,0 l/m 0 min 0 min 0,0 UV-I 53 W/m 10,3 km/h (2 Bft)
25.10.2013 10:24 14,2 C 12,8 C 90 % 1011,2 hPa 0,0 l/m 0 min 0 min 0,0 UV-I 60 W/m 18,0 km/h (3 Bft)
25.10.2013 10:26 14,2 C 12,8 C 90 % 1011,2 hPa 0,0 l/m 0 min 0 min 0,0 UV-I 62 W/m 18,0 km/h (3 Bft)
25.10.2013 10:28 14,2 C 12,8 C 90 % 1011,3 hPa 0,0 l/m 0 min 0 min 0,0 UV-I 62 W/m 15,4 km/h (3 Bft)
25.10.2013 10:30 14,2 C 12,8 C 90 % 1011,3 hPa 0,0 l/m 0 min 0 min 0,0 UV-I 58 W/m 10,3 km/h (2 Bft)
25.10.2013 10:32 14,2 C 13,3 C 90 % 1011,2 hPa 0,0 l/m 0 min 0 min 0,0 UV-I 54 W/m 12,9 km/h (3 Bft)
25.10.2013 10:34 14,2 C 13,3 C 90 % 1011,2 hPa 0,0 l/m 0 min 0 min 0,0 UV-I 49 W/m 10,3 km/h (2 Bft)
25.10.2013 10:36 14,2 C 12,8 C 90 % 1011,2 hPa 0,0 l/m 0 min 0 min 0,0 UV-I 51 W/m 10,3 km/h (2 Bft)
25.10.2013 10:38 14,2 C 13,3 C 90 % 1011,1 hPa 0,0 l/m 0 min 0 min 0,0 UV-I 54 W/m 12,9 km/h (3 Bft)
25.10.2013 10:40 14,2 C 13,3 C 90 % 1011,1 hPa 0,0 l/m 0 min 2 min 0,0 UV-I 58 W/m 12,9 km/h (3 Bft)
25.10.2013 10:42 14,2 C 13,3 C 90 % 1011,2 hPa 0,0 l/m 0 min 0 min 0,0 UV-I 58 W/m 20,6 km/h (4 Bft)
25.10.2013 10:44 14,2 C 13,3 C 90 % 1011,2 hPa 0,0 l/m 0 min 0 min 0,0 UV-I 60 W/m 15,4 km/h (3 Bft)
25.10.2013 10:46 14,2 C 13,3 C 90 % 1011,2 hPa 0,0 l/m 0 min 0 min 0,0 UV-I 62 W/m 18,0 km/h (3 Bft)
25.10.2013 10:48 14,2 C 13,3 C 90 % 1011,2 hPa 0,0 l/m 0 min 0 min 0,0 UV-I 63 W/m 15,4 km/h (3 Bft)
25.10.2013 10:50 14,2 C 13,3 C 90 % 1011,3 hPa 0,0 l/m 0 min 0 min 0,0 UV-I 62 W/m 15,4 km/h (3 Bft)
25.10.2013 10:52 14,2 C 13,3 C 90 % 1011,4 hPa 0,0 l/m 0 min 0 min 0,0 UV-I 58 W/m 18,0 km/h (3 Bft)
25.10.2013 10:54 14,2 C 13,3 C 90 % 1011,2 hPa 0,0 l/m 0 min 0 min 0,0 UV-I 53 W/m 20,6 km/h (4 Bft)
25.10.2013 10:56 14,3 C 13,3 C 90 % 1011,3 hPa 0,0 l/m 0 min 2 min 0,0 UV-I 53 W/m 15,4 km/h (3 Bft)
25.10.2013 10:58 14,3 C 13,3 C 90 % 1011,3 hPa 0,0 l/m 0 min 2 min 0,0 UV-I 54 W/m 18,0 km/h (3 Bft)
25.10.2013 11:00 14,3 C 13,3 C 90 % 1011,3 hPa 0,0 l/m 0 min 2 min 0,0 UV-I 58 W/m 15,4 km/h (3 Bft)
25.10.2013 11:02 14,3 C 13,3 C 90 % 1011,5 hPa 0,0 l/m 0 min 2 min 0,0 UV-I 58 W/m 18,0 km/h (3 Bft)
25.10.2013 11:06 14,3 C 12,8 C 90 % 1011,6 hPa 0,0 l/m 0 min 2 min 0,0 UV-I 62 W/m 2,6 km/h (1 Bft)
25.10.2013 11:08 14,3 C 12,8 C 90 % 1011,6 hPa 0,0 l/m 0 min 2 min 0,0 UV-I 62 W/m 12,9 km/h (3 Bft)
25.10.2013 11:10 14,3 C 12,8 C 91 % 1011,6 hPa 0,0 l/m 0 min 2 min 0,0 UV-I 56 W/m 7,7 km/h (2 Bft)
25.10.2013 11:12 14,3 C 12,8 C 91 % 1011,6 hPa 0,0 l/m 0 min 2 min 0,0 UV-I 56 W/m 7,7 km/h (2 Bft)
25.10.2013 11:14 14,3 C 12,8 C 91 % 1011,8 hPa 0,0 l/m 0 min 2 min 0,0 UV-I 60 W/m 12,9 km/h (3 Bft)
25.10.2013 11:16 14,4 C 12,8 C 91 % 1011,6 hPa 0,0 l/m 0 min 0 min 0,0 UV-I 58 W/m 2,6 km/h (1 Bft)
25.10.2013 11:18 14,4 C 12,8 C 91 % 1011,8 hPa 0,0 l/m 0 min 0 min 0,0 UV-I 58 W/m 7,7 km/h (2 Bft)
25.10.2013 11:20 14,4 C 12,8 C 91 % 1011,7 hPa 0,0 l/m 0 min 0 min 0,0 UV-I 60 W/m 10,3 km/h (2 Bft)
25.10.2013 11:22 14,4 C 12,8 C 91 % 1011,8 hPa 0,0 l/m 0 min 2 min 0,0 UV-I 60 W/m 7,7 km/h (2 Bft)
25.10.2013 11:24 14,4 C 12,8 C 91 % 1011,7 hPa 0,0 l/m 0 min 2 min 0,0 UV-I 60 W/m 5,1 km/h (1 Bft)
25.10.2013 11:26 14,4 C 12,8 C 91 % 1011,7 hPa 0,0 l/m 0 min 2 min 0,0 UV-I 63 W/m 15,4 km/h (3 Bft)
25.10.2013 11:28 14,4 C 12,8 C 91 % 1011,6 hPa 0,0 l/m 0 min 2 min 0,0 UV-I 56 W/m 12,9 km/h (3 Bft)
25.10.2013 11:30 14,4 C 12,8 C 91 % 1011,5 hPa 0,0 l/m 0 min 2 min 0,0 UV-I 42 W/m 10,3 km/h (2 Bft)
25.10.2013 11:32 14,4 C 12,8 C 91 % 1011,5 hPa 0,0 l/m 0 min 2 min 0,0 UV-I 39 W/m 10,3 km/h (2 Bft)
25.10.2013 11:34 14,4 C 12,8 C 91 % 1011,5 hPa 0,0 l/m 0 min 2 min 0,0 UV-I 39 W/m 12,9 km/h (3 Bft)
25.10.2013 11:36 14,3 C 12,8 C 91 % 1011,5 hPa 0,0 l/m 0 min 2 min 0,0 UV-I 40 W/m 12,9 km/h (3 Bft)
25.10.2013 11:38 14,3 C 12,2 C 91 % 1011,5 hPa 0,0 l/m 0 min 2 min 0,0 UV-I 47 W/m 15,4 km/h (3 Bft)
25.10.2013 11:40 14,3 C 12,2 C 91 % 1011,4 hPa 0,0 l/m 0 min 2 min 0,0 UV-I 51 W/m 18,0 km/h (3 Bft)
25.10.2013 11:42 14,2 C 12,2 C 92 % 1011,4 hPa 0,0 l/m 0 min 2 min 0,0 UV-I 49 W/m 12,9 km/h (3 Bft)
25.10.2013 11:44 14,2 C 12,2 C 92 % 1011,4 hPa 0,0 l/m 0 min 2 min 0,0 UV-I 51 W/m 10,3 km/h (2 Bft)
25.10.2013 11:46 14,2 C 12,2 C 92 % 1011,5 hPa 0,2 l/m 0 min 2 min 0,0 UV-I 40 W/m 10,3 km/h (2 Bft)
25.10.2013 11:48 14,2 C 12,2 C 92 % 1011,6 hPa 0,0 l/m 0 min 2 min 0,0 UV-I 33 W/m 18,0 km/h (3 Bft)
25.10.2013 11:50 14,2 C 12,2 C 93 % 1011,5 hPa 0,0 l/m 0 min 2 min 0,0 UV-I 32 W/m 10,3 km/h (2 Bft)
25.10.2013 11:52 14,2 C 12,2 C 93 % 1011,5 hPa 0,0 l/m 0 min 2 min 0,0 UV-I 33 W/m 15,4 km/h (3 Bft)
25.10.2013 11:54 14,2 C 12,2 C 93 % 1011,6 hPa 0,0 l/m 0 min 2 min 0,0 UV-I 33 W/m 10,3 km/h (2 Bft)
25.10.2013 11:56 14,2 C 12,2 C 93 % 1011,7 hPa 0,0 l/m 0 min 2 min 0,0 UV-I 30 W/m 12,9 km/h (3 Bft)
25.10.2013 11:58 14,2 C 12,2 C 93 % 1011,7 hPa 0,0 l/m 0 min 2 min 0,0 UV-I 39 W/m 12,9 km/h (3 Bft)
25.10.2013 12:00 14,1 C 12,2 C 93 % 1011,6 hPa 0,0 l/m 0 min 2 min 0,0 UV-I 47 W/m 5,1 km/h (1 Bft)
25.10.2013 12:02 14,1 C 12,2 C 94 % 1011,5 hPa 0,0 l/m 0 min 2 min 0,0 UV-I 62 W/m 15,4 km/h (3 Bft)
25.10.2013 12:06 14,1 C 12,2 C 94 % 1011,5 hPa 0,0 l/m 0 min 2 min 0,0 UV-I 69 W/m 12,9 km/h (3 Bft)
25.10.2013 12:08 14,1 C 12,2 C 94 % 1011,4 hPa 0,0 l/m 0 min 2 min 0,0 UV-I 69 W/m 12,9 km/h (3 Bft)
25.10.2013 12:10 14,1 C 12,2 C 94 % 1011,4 hPa 0,0 l/m 0 min 2 min 0,0 UV-I 69 W/m 20,6 km/h (4 Bft)
25.10.2013 12:12 14,1 C 12,2 C 94 % 1011,3 hPa 0,0 l/m 0 min 0 min 0,0 UV-I 79 W/m 20,6 km/h (4 Bft)
25.10.2013 12:14 14,1 C 12,2 C 95 % 1011,2 hPa 0,0 l/m 0 min 2 min 0,0 UV-I 95 W/m 15,4 km/h (3 Bft)
25.10.2013 12:16 14,1 C 12,8 C 95 % 1011,2 hPa 0,2 l/m 0 min 2 min 0,0 UV-I 120 W/m 20,6 km/h (4 Bft)
25.10.2013 12:18 14,1 C 12,8 C 95 % 1011,3 hPa 0,0 l/m 0 min 2 min 0,0 UV-I 123 W/m 20,6 km/h (4 Bft)
25.10.2013 12:20 14,2 C 12,8 C 95 % 1011,2 hPa 0,0 l/m 0 min 2 min 0,0 UV-I 111 W/m 10,3 km/h (2 Bft)
25.10.2013 12:22 14,2 C 12,8 C 95 % 1011,3 hPa 0,0 l/m 0 min 2 min 0,0 UV-I 125 W/m 20,6 km/h (4 Bft)
25.10.2013 12:24 14,2 C 12,8 C 95 % 1011,3 hPa 0,0 l/m 0 min 2 min 0,0 UV-I 135 W/m 18,0 km/h (3 Bft)
25.10.2013 12:26 14,2 C 12,8 C 95 % 1011,2 hPa 0,0 l/m 0 min 2 min 0,0 UV-I 132 W/m 15,4 km/h (3 Bft)
25.10.2013 12:28 14,2 C 12,8 C 95 % 1011,3 hPa 0,0 l/m 0 min 2 min 0,0 UV-I 142 W/m 23,2 km/h (4 Bft)
25.10.2013 12:30 14,2 C 12,8 C 95 % 1011,3 hPa 0,0 l/m 0 min 2 min 0,0 UV-I 156 W/m 20,6 km/h (4 Bft)
25.10.2013 12:32 14,2 C 12,8 C 95 % 1011,2 hPa 0,0 l/m 0 min 2 min 0,0 UV-I 156 W/m 25,7 km/h (4 Bft)
25.10.2013 12:34 14,2 C 12,8 C 95 % 1011,3 hPa 0,0 l/m 0 min 2 min 0,0 UV-I 158 W/m 28,3 km/h (4 Bft)
25.10.2013 12:36 14,3 C 12,8 C 95 % 1011,2 hPa 0,0 l/m 0 min 2 min 0,0 UV-I 128 W/m 25,7 km/h (4 Bft)
25.10.2013 12:38 14,3 C 12,8 C 95 % 1011,2 hPa 0,0 l/m 0 min 2 min 0,0 UV-I 116 W/m 20,6 km/h (4 Bft)
25.10.2013 12:40 14,3 C 12,8 C 95 % 1011,1 hPa 0,0 l/m 0 min 2 min 0,0 UV-I 98 W/m 23,2 km/h (4 Bft)
25.10.2013 12:42 14,3 C 12,8 C 95 % 1011,2 hPa 0,0 l/m 0 min 0 min 0,0 UV-I 72 W/m 20,6 km/h (4 Bft)
25.10.2013 12:44 14,4 C 12,8 C 95 % 1011,2 hPa 0,0 l/m 0 min 0 min 0,0 UV-I 93 W/m 20,6 km/h (4 Bft)
25.10.2013 12:46 14,4 C 12,8 C 95 % 1011,1 hPa 0,0 l/m 0 min 0 min 0,0 UV-I 83 W/m 25,7 km/h (4 Bft)
25.10.2013 12:48 14,4 C 12,8 C 95 % 1011,1 hPa 0,0 l/m 0 min 0 min 0,0 UV-I 81 W/m 23,2 km/h (4 Bft)
25.10.2013 12:50 14,4 C 12,8 C 95 % 1011,1 hPa 0,0 l/m 0 min 0 min 0,0 UV-I 100 W/m 20,6 km/h (4 Bft)
25.10.2013 12:52 14,4 C 12,8 C 95 % 1010,9 hPa 0,0 l/m 0 min 0 min 0,0 UV-I 156 W/m 15,4 km/h (3 Bft)
25.10.2013 12:54 14,5 C 13,3 C 95 % 1011,0 hPa 0,0 l/m 0 min 0 min 0,0 UV-I 156 W/m 25,7 km/h (4 Bft)
25.10.2013 12:56 14,5 C 13,3 C 95 % 1011,0 hPa 0,0 l/m 0 min 0 min 0,0 UV-I 172 W/m 23,2 km/h (4 Bft)
25.10.2013 12:58 14,6 C 13,3 C 95 % 1010,9 hPa 0,0 l/m 2 min 0 min 0,5 UV-I 258 W/m 30,9 km/h (5 Bft)
25.10.2013 13:00 14,7 C 13,3 C 95 % 1010,7 hPa 0,0 l/m 2 min 0 min 0,7 UV-I 323 W/m 23,2 km/h (4 Bft)
25.10.2013 13:02 14,9 C 13,9 C 95 % 1010,8 hPa 0,0 l/m 2 min 0 min 0,7 UV-I 264 W/m 18,0 km/h (3 Bft)
25.10.2013 13:06 15,2 C 13,9 C 95 % 1010,7 hPa 0,0 l/m 2 min 0 min 0,7 UV-I 438 W/m 25,7 km/h (4 Bft)
25.10.2013 13:08 15,4 C 13,9 C 94 % 1010,6 hPa 0,0 l/m 2 min 0 min 0,7 UV-I 369 W/m 25,7 km/h (4 Bft)
25.10.2013 13:10 15,6 C 13,9 C 94 % 1010,5 hPa 0,0 l/m 2 min 0 min 0,7 UV-I 366 W/m 20,6 km/h (4 Bft)
25.10.2013 13:12 15,7 C 13,9 C 93 % 1010,6 hPa 0,0 l/m 2 min 0 min 0,7 UV-I 276 W/m 25,7 km/h (4 Bft)
25.10.2013 13:14 15,7 C 14,4 C 93 % 1010,5 hPa 0,0 l/m 0 min 0 min 0,7 UV-I 234 W/m 23,2 km/h (4 Bft)
25.10.2013 13:16 15,8 C 14,4 C 92 % 1010,6 hPa 0,0 l/m 0 min 0 min 0,6 UV-I 220 W/m 20,6 km/h (4 Bft)
25.10.2013 13:18 15,8 C 14,4 C 92 % 1010,5 hPa 0,0 l/m 0 min 0 min 0,6 UV-I 218 W/m 15,4 km/h (3 Bft)
25.10.2013 13:20 15,8 C 14,4 C 92 % 1010,5 hPa 0,0 l/m 0 min 0 min 0,5 UV-I 179 W/m 12,9 km/h (3 Bft)
25.10.2013 13:22 15,8 C 14,4 C 92 % 1010,6 hPa 0,0 l/m 0 min 0 min 0,5 UV-I 179 W/m 18,0 km/h (3 Bft)
25.10.2013 13:24 15,7 C 14,4 C 91 % 1010,6 hPa 0,0 l/m 0 min 0 min 0,5 UV-I 190 W/m 28,3 km/h (4 Bft)
25.10.2013 13:26 15,7 C 13,9 C 91 % 1010,6 hPa 0,0 l/m 0 min 0 min 0,5 UV-I 202 W/m 18,0 km/h (3 Bft)
25.10.2013 13:28 15,7 C 14,4 C 91 % 1010,7 hPa 0,0 l/m 0 min 0 min 0,6 UV-I 230 W/m 20,6 km/h (4 Bft)
25.10.2013 13:30 15,7 C 14,4 C 92 % 1010,7 hPa 0,0 l/m 0 min 0 min 0,7 UV-I 246 W/m 12,9 km/h (3 Bft)
25.10.2013 13:32 15,8 C 14,4 C 91 % 1010,6 hPa 0,0 l/m 0 min 0 min 0,6 UV-I 195 W/m 25,7 km/h (4 Bft)
25.10.2013 13:34 15,8 C 14,4 C 91 % 1010,6 hPa 0,0 l/m 0 min 0 min 0,6 UV-I 185 W/m 23,2 km/h (4 Bft)
25.10.2013 13:36 15,8 C 14,4 C 91 % 1010,5 hPa 0,0 l/m 2 min 0 min 0,8 UV-I 308 W/m 18,0 km/h (3 Bft)
25.10.2013 13:38 15,9 C 14,4 C 91 % 1010,5 hPa 0,0 l/m 2 min 0 min 0,8 UV-I 297 W/m 15,4 km/h (3 Bft)
25.10.2013 13:40 16,0 C 14,4 C 92 % 1010,5 hPa 0,0 l/m 2 min 0 min 0,8 UV-I 262 W/m 28,3 km/h (4 Bft)
25.10.2013 13:42 16,1 C 14,4 C 91 % 1010,5 hPa 0,0 l/m 0 min 0 min 0,7 UV-I 239 W/m 20,6 km/h (4 Bft)
25.10.2013 13:44 16,1 C 14,4 C 91 % 1010,5 hPa 0,0 l/m 2 min 0 min 0,6 UV-I 250 W/m 23,2 km/h (4 Bft)
25.10.2013 13:46 16,1 C 14,4 C 91 % 1010,5 hPa 0,0 l/m 2 min 0 min 0,8 UV-I 251 W/m 23,2 km/h (4 Bft)
25.10.2013 13:48 16,1 C 14,4 C 91 % 1010,6 hPa 0,0 l/m 0 min 0 min 0,6 UV-I 195 W/m 12,9 km/h (3 Bft)
25.10.2013 13:50 16,1 C 14,4 C 91 % 1010,5 hPa 0,0 l/m 0 min 0 min 0,6 UV-I 192 W/m 25,7 km/h (4 Bft)
25.10.2013 13:52 16,1 C 14,4 C 91 % 1010,6 hPa 0,0 l/m 0 min 0 min 0,6 UV-I 195 W/m 30,9 km/h (5 Bft)
25.10.2013 13:54 16,1 C 14,4 C 91 % 1010,5 hPa 0,0 l/m 0 min 0 min 0,6 UV-I 181 W/m 23,2 km/h (4 Bft)
25.10.2013 13:56 16,1 C 14,4 C 91 % 1010,5 hPa 0,0 l/m 0 min 0 min 0,6 UV-I 183 W/m 28,3 km/h (4 Bft)
25.10.2013 13:58 16,0 C 14,4 C 91 % 1010,4 hPa 0,0 l/m 0 min 0 min 0,6 UV-I 211 W/m 23,2 km/h (4 Bft)
25.10.2013 14:00 16,0 C 14,4 C 91 % 1010,5 hPa 0,0 l/m 0 min 0 min 0,6 UV-I 195 W/m 23,2 km/h (4 Bft)
25.10.2013 14:02 16,0 C 14,4 C 91 % 1010,5 hPa 0,0 l/m 0 min 0 min 0,6 UV-I 216 W/m 12,9 km/h (3 Bft)
25.10.2013 14:06 16,1 C 14,4 C 91 % 1010,5 hPa 0,0 l/m 0 min 0 min 0,6 UV-I 234 W/m 18,0 km/h (3 Bft)
25.10.2013 14:08 16,1 C 14,4 C 91 % 1010,5 hPa 0,0 l/m 0 min 0 min 0,5 UV-I 179 W/m 18,0 km/h (3 Bft)
25.10.2013 14:10 16,2 C 14,4 C 91 % 1010,5 hPa 0,0 l/m 0 min 0 min 0,5 UV-I 167 W/m 15,4 km/h (3 Bft)
25.10.2013 14:12 16,2 C 14,4 C 91 % 1010,5 hPa 0,0 l/m 0 min 0 min 0,5 UV-I 163 W/m 18,0 km/h (3 Bft)
25.10.2013 14:14 16,2 C 14,4 C 91 % 1010,4 hPa 0,0 l/m 0 min 0 min 0,5 UV-I 234 W/m 18,0 km/h (3 Bft)
25.10.2013 14:16 16,2 C 14,4 C 91 % 1010,4 hPa 0,0 l/m 2 min 0 min 0,6 UV-I 287 W/m 20,6 km/h (4 Bft)
25.10.2013 14:18 16,2 C 15,0 C 91 % 1010,5 hPa 0,0 l/m 0 min 0 min 0,5 UV-I 225 W/m 18,0 km/h (3 Bft)
25.10.2013 14:20 16,3 C 15,0 C 91 % 1010,5 hPa 0,0 l/m 0 min 0 min 0,5 UV-I 193 W/m 20,6 km/h (4 Bft)
25.10.2013 14:22 16,4 C 15,0 C 91 % 1010,5 hPa 0,0 l/m 0 min 0 min 0,0 UV-I 174 W/m 15,4 km/h (3 Bft)
25.10.2013 14:24 16,4 C 15,0 C 91 % 1010,5 hPa 0,0 l/m 0 min 0 min 0,0 UV-I 167 W/m 18,0 km/h (3 Bft)
25.10.2013 14:26 16,4 C 15,0 C 91 % 1010,4 hPa 0,0 l/m 0 min 0 min 0,0 UV-I 169 W/m 23,2 km/h (4 Bft)
25.10.2013 14:28 16,4 C 15,0 C 91 % 1010,4 hPa 0,0 l/m 0 min 0 min 0,0 UV-I 171 W/m 18,0 km/h (3 Bft)
25.10.2013 14:30 16,4 C 15,0 C 91 % 1010,4 hPa 0,0 l/m 0 min 0 min 0,0 UV-I 174 W/m 20,6 km/h (4 Bft)
25.10.2013 14:32 16,5 C 15,0 C 91 % 1010,4 hPa 0,0 l/m 0 min 0 min 0,0 UV-I 178 W/m 20,6 km/h (4 Bft)
25.10.2013 14:34 16,6 C 15,0 C 91 % 1010,4 hPa 0,0 l/m 0 min 0 min 0,0 UV-I 183 W/m 18,0 km/h (3 Bft)
25.10.2013 14:36 16,6 C 15,0 C 91 % 1010,4 hPa 0,0 l/m 0 min 0 min 0,0 UV-I 199 W/m 18,0 km/h (3 Bft)
25.10.2013 14:38 16,6 C 15,0 C 91 % 1010,4 hPa 0,0 l/m 0 min 0 min 0,5 UV-I 209 W/m 15,4 km/h (3 Bft)
25.10.2013 14:40 16,7 C 15,6 C 91 % 1010,4 hPa 0,0 l/m 0 min 0 min 0,5 UV-I 197 W/m 12,9 km/h (3 Bft)
25.10.2013 14:42 16,7 C 15,6 C 91 % 1010,4 hPa 0,0 l/m 2 min 0 min 0,5 UV-I 229 W/m 18,0 km/h (3 Bft)
25.10.2013 14:44 16,8 C 15,6 C 91 % 1010,4 hPa 0,0 l/m 0 min 0 min 0,0 UV-I 206 W/m 18,0 km/h (3 Bft)
25.10.2013 14:46 16,9 C 15,6 C 90 % 1010,4 hPa 0,0 l/m 0 min 0 min 0,0 UV-I 195 W/m 18,0 km/h (3 Bft)
25.10.2013 14:48 16,9 C 15,6 C 90 % 1010,4 hPa 0,0 l/m 0 min 0 min 0,0 UV-I 181 W/m 15,4 km/h (3 Bft)
25.10.2013 14:50 16,9 C 15,6 C 90 % 1010,4 hPa 0,0 l/m 0 min 0 min 0,0 UV-I 179 W/m 18,0 km/h (3 Bft)
25.10.2013 14:52 16,9 C 15,6 C 90 % 1010,3 hPa 0,0 l/m 0 min 0 min 0,0 UV-I 165 W/m 18,0 km/h (3 Bft)
25.10.2013 14:54 16,9 C 15,6 C 90 % 1010,2 hPa 0,0 l/m 0 min 0 min 0,0 UV-I 163 W/m 15,4 km/h (3 Bft)
25.10.2013 14:56 16,9 C 15,6 C 90 % 1010,2 hPa 0,0 l/m 0 min 0 min 0,0 UV-I 162 W/m 25,7 km/h (4 Bft)
25.10.2013 14:58 16,9 C 15,6 C 90 % 1010,1 hPa 0,0 l/m 0 min 0 min 0,0 UV-I 160 W/m 18,0 km/h (3 Bft)
25.10.2013 15:00 16,9 C 15,6 C 90 % 1010,2 hPa 0,0 l/m 0 min 0 min 0,0 UV-I 163 W/m 10,3 km/h (2 Bft)
25.10.2013 15:02 16,9 C 15,6 C 90 % 1010,3 hPa 0,0 l/m 0 min 0 min 0,0 UV-I 162 W/m 18,0 km/h (3 Bft)
25.10.2013 15:06 17,0 C 16,1 C 90 % 1010,3 hPa 0,0 l/m 0 min 0 min 0,0 UV-I 151 W/m 15,4 km/h (3 Bft)
25.10.2013 15:08 17,0 C 16,1 C 90 % 1010,4 hPa 0,0 l/m 0 min 0 min 0,0 UV-I 149 W/m 12,9 km/h (3 Bft)
25.10.2013 15:10 17,1 C 16,1 C 90 % 1010,3 hPa 0,0 l/m 0 min 0 min 0,0 UV-I 144 W/m 15,4 km/h (3 Bft)
25.10.2013 15:12 17,1 C 16,1 C 90 % 1010,4 hPa 0,0 l/m 0 min 0 min 0,0 UV-I 137 W/m 12,9 km/h (3 Bft)
25.10.2013 15:14 17,1 C 16,1 C 90 % 1010,4 hPa 0,0 l/m 0 min 0 min 0,0 UV-I 135 W/m 18,0 km/h (3 Bft)
25.10.2013 15:16 17,1 C 16,1 C 90 % 1010,5 hPa 0,0 l/m 0 min 0 min 0,0 UV-I 135 W/m 5,1 km/h (1 Bft)
25.10.2013 15:18 17,2 C 16,1 C 90 % 1010,4 hPa 0,0 l/m 0 min 0 min 0,0 UV-I 139 W/m 0,0 km/h (0 Bft)
25.10.2013 15:20 17,2 C 16,1 C 91 % 1010,4 hPa 0,0 l/m 0 min 0 min 0,0 UV-I 139 W/m 0,0 km/h (0 Bft)
25.10.2013 15:22 17,2 C 16,1 C 90 % 1010,3 hPa 0,0 l/m 0 min 0 min 0,0 UV-I 137 W/m 0,0 km/h (0 Bft)
25.10.2013 15:24 17,3 C 16,1 C 90 % 1010,3 hPa 0,0 l/m 0 min 0 min 0,0 UV-I 130 W/m 7,7 km/h (2 Bft)
25.10.2013 15:26 17,3 C 16,1 C 90 % 1010,3 hPa 0,0 l/m 0 min 0 min 0,0 UV-I 128 W/m 5,1 km/h (1 Bft)
25.10.2013 15:28 17,4 C 16,7 C 90 % 1010,3 hPa 0,0 l/m 0 min 0 min 0,0 UV-I 128 W/m 10,3 km/h (2 Bft)
25.10.2013 15:30 17,4 C 16,7 C 90 % 1010,3 hPa 0,0 l/m 0 min 0 min 0,0 UV-I 127 W/m 2,6 km/h (1 Bft)
25.10.2013 15:32 17,4 C 16,7 C 90 % 1010,2 hPa 0,0 l/m 0 min 0 min 0,0 UV-I 123 W/m 7,7 km/h (2 Bft)
25.10.2013 15:34 17,4 C 16,7 C 90 % 1010,2 hPa 0,0 l/m 0 min 0 min 0,0 UV-I 121 W/m 10,3 km/h (2 Bft)
25.10.2013 15:36 17,4 C 16,7 C 90 % 1010,2 hPa 0,0 l/m 0 min 0 min 0,0 UV-I 120 W/m 12,9 km/h (3 Bft)
25.10.2013 15:38 17,5 C 16,7 C 90 % 1010,1 hPa 0,0 l/m 0 min 0 min 0,0 UV-I 116 W/m 7,7 km/h (2 Bft)
25.10.2013 15:40 17,5 C 16,7 C 90 % 1010,2 hPa 0,0 l/m 0 min 0 min 0,0 UV-I 114 W/m 7,7 km/h (2 Bft)
25.10.2013 15:42 17,6 C 16,7 C 90 % 1010,2 hPa 0,0 l/m 0 min 0 min 0,0 UV-I 118 W/m 0,0 km/h (0 Bft)
25.10.2013 15:44 17,6 C 16,7 C 90 % 1010,2 hPa 0,0 l/m 0 min 0 min 0,0 UV-I 114 W/m 2,6 km/h (1 Bft)
25.10.2013 15:46 17,6 C 16,7 C 90 % 1010,2 hPa 0,0 l/m 0 min 0 min 0,0 UV-I 105 W/m 2,6 km/h (1 Bft)
25.10.2013 15:48 17,6 C 16,7 C 90 % 1010,2 hPa 0,0 l/m 0 min 0 min 0,0 UV-I 93 W/m 2,6 km/h (1 Bft)
25.10.2013 15:50 17,6 C 16,7 C 90 % 1010,2 hPa 0,0 l/m 0 min 0 min 0,0 UV-I 91 W/m 12,9 km/h (3 Bft)
25.10.2013 15:52 17,6 C 16,7 C 90 % 1010,2 hPa 0,0 l/m 0 min 0 min 0,0 UV-I 100 W/m 10,3 km/h (2 Bft)
25.10.2013 15:54 17,6 C 16,7 C 90 % 1010,2 hPa 0,0 l/m 0 min 0 min 0,0 UV-I 105 W/m 7,7 km/h (2 Bft)
25.10.2013 15:56 17,6 C 16,7 C 90 % 1010,3 hPa 0,0 l/m 0 min 0 min 0,0 UV-I 116 W/m 0,0 km/h (0 Bft)
25.10.2013 15:58 17,6 C 16,7 C 90 % 1010,3 hPa 0,0 l/m 0 min 0 min 0,0 UV-I 123 W/m 2,6 km/h (1 Bft)
25.10.2013 16:00 17,6 C 16,7 C 90 % 1010,4 hPa 0,0 l/m 0 min 0 min 0,0 UV-I 120 W/m 12,9 km/h (3 Bft)
25.10.2013 16:02 17,6 C 16,7 C 90 % 1010,4 hPa 0,0 l/m 0 min 0 min 0,0 UV-I 109 W/m 12,9 km/h (3 Bft)
25.10.2013 16:06 17,6 C 16,7 C 90 % 1010,5 hPa 0,0 l/m 0 min 0 min 0,0 UV-I 76 W/m 12,9 km/h (3 Bft)
25.10.2013 16:08 17,6 C 16,1 C 90 % 1010,6 hPa 0,0 l/m 0 min 0 min 0,0 UV-I 70 W/m 2,6 km/h (1 Bft)
25.10.2013 16:10 17,6 C 16,1 C 90 % 1010,5 hPa 0,0 l/m 0 min 0 min 0,0 UV-I 83 W/m 7,7 km/h (2 Bft)
25.10.2013 16:12 17,6 C 16,1 C 90 % 1010,5 hPa 0,0 l/m 0 min 0 min 0,0 UV-I 90 W/m 5,1 km/h (1 Bft)
25.10.2013 16:14 17,5 C 16,1 C 90 % 1010,5 hPa 0,0 l/m 0 min 0 min 0,0 UV-I 93 W/m 10,3 km/h (2 Bft)
25.10.2013 16:16 17,5 C 16,1 C 90 % 1010,4 hPa 0,0 l/m 0 min 0 min 0,0 UV-I 88 W/m 10,3 km/h (2 Bft)
25.10.2013 16:18 17,5 C 16,1 C 90 % 1010,4 hPa 0,0 l/m 0 min 0 min 0,0 UV-I 83 W/m 0,0 km/h (0 Bft)
25.10.2013 16:20 17,5 C 16,1 C 90 % 1010,4 hPa 0,0 l/m 0 min 0 min 0,0 UV-I 77 W/m 10,3 km/h (2 Bft)
25.10.2013 16:22 17,5 C 16,1 C 90 % 1010,4 hPa 0,0 l/m 0 min 0 min 0,0 UV-I 60 W/m 0,0 km/h (0 Bft)
25.10.2013 16:24 17,6 C 16,1 C 90 % 1010,5 hPa 0,0 l/m 0 min 0 min 0,0 UV-I 53 W/m 2,6 km/h (1 Bft)
25.10.2013 16:26 17,6 C 16,1 C 90 % 1010,5 hPa 0,0 l/m 0 min 0 min 0,0 UV-I 51 W/m 2,6 km/h (1 Bft)
25.10.2013 16:28 17,5 C 16,1 C 90 % 1010,5 hPa 0,0 l/m 0 min 0 min 0,0 UV-I 63 W/m 2,6 km/h (1 Bft)
25.10.2013 16:30 17,5 C 16,1 C 91 % 1010,5 hPa 0,0 l/m 0 min 0 min 0,0 UV-I 77 W/m 0,0 km/h (0 Bft)
25.10.2013 16:32 17,6 C 16,1 C 91 % 1010,4 hPa 0,0 l/m 0 min 0 min 0,0 UV-I 104 W/m 0,0 km/h (0 Bft)
25.10.2013 16:34 17,6 C 16,1 C 91 % 1010,3 hPa 0,0 l/m 2 min 0 min 0,0 UV-I 142 W/m 2,6 km/h (1 Bft)
25.10.2013 16:36 17,6 C 16,7 C 91 % 1010,4 hPa 0,0 l/m 2 min 0 min 0,0 UV-I 135 W/m 10,3 km/h (2 Bft)
25.10.2013 16:38 17,7 C 16,7 C 90 % 1010,4 hPa 0,0 l/m 0 min 0 min 0,0 UV-I 114 W/m 2,6 km/h (1 Bft)
25.10.2013 16:40 17,7 C 16,7 C 90 % 1010,5 hPa 0,0 l/m 0 min 0 min 0,0 UV-I 95 W/m 7,7 km/h (2 Bft)
25.10.2013 16:42 17,7 C 16,7 C 90 % 1010,4 hPa 0,0 l/m 0 min 0 min 0,0 UV-I 83 W/m 10,3 km/h (2 Bft)
25.10.2013 16:44 17,7 C 16,7 C 90 % 1010,5 hPa 0,0 l/m 0 min 0 min 0,0 UV-I 77 W/m 7,7 km/h (2 Bft)
25.10.2013 16:46 17,7 C 16,7 C 90 % 1010,4 hPa 0,0 l/m 0 min 0 min 0,0 UV-I 62 W/m 2,6 km/h (1 Bft)
25.10.2013 16:48 17,7 C 16,1 C 90 % 1010,5 hPa 0,0 l/m 0 min 0 min 0,0 UV-I 58 W/m 10,3 km/h (2 Bft)
25.10.2013 16:50 17,7 C 16,1 C 90 % 1010,4 hPa 0,0 l/m 0 min 0 min 0,0 UV-I 56 W/m 2,6 km/h (1 Bft)
25.10.2013 16:52 17,7 C 16,1 C 90 % 1010,4 hPa 0,0 l/m 0 min 0 min 0,0 UV-I 51 W/m 5,1 km/h (1 Bft)
25.10.2013 16:54 17,7 C 16,1 C 90 % 1010,4 hPa 0,0 l/m 0 min 0 min 0,0 UV-I 51 W/m 2,6 km/h (1 Bft)
25.10.2013 16:56 17,6 C 16,1 C 90 % 1010,4 hPa 0,0 l/m 0 min 0 min 0,0 UV-I 49 W/m 0,0 km/h (0 Bft)
25.10.2013 16:58 17,6 C 16,1 C 90 % 1010,4 hPa 0,0 l/m 0 min 0 min 0,0 UV-I 54 W/m 2,6 km/h (1 Bft)
25.10.2013 17:00 17,6 C 16,1 C 90 % 1010,4 hPa 0,0 l/m 0 min 0 min 0,0 UV-I 62 W/m 12,9 km/h (3 Bft)
25.10.2013 17:02 17,6 C 16,1 C 90 % 1010,4 hPa 0,0 l/m 0 min 0 min 0,0 UV-I 67 W/m 7,7 km/h (2 Bft)
25.10.2013 17:06 17,7 C 16,1 C 90 % 1010,5 hPa 0,0 l/m 0 min 0 min 0,0 UV-I 74 W/m 10,3 km/h (2 Bft)
25.10.2013 17:08 17,7 C 16,1 C 90 % 1010,5 hPa 0,0 l/m 0 min 0 min 0,0 UV-I 70 W/m 0,0 km/h (0 Bft)
25.10.2013 17:10 17,7 C 16,1 C 90 % 1010,6 hPa 0,0 l/m 0 min 0 min 0,0 UV-I 69 W/m 10,3 km/h (2 Bft)
25.10.2013 17:12 17,7 C 16,1 C 90 % 1010,5 hPa 0,0 l/m 0 min 0 min 0,0 UV-I 67 W/m 2,6 km/h (1 Bft)
25.10.2013 17:14 17,8 C 16,1 C 90 % 1010,5 hPa 0,0 l/m 0 min 0 min 0,0 UV-I 63 W/m 0,0 km/h (0 Bft)
25.10.2013 17:16 17,7 C 16,1 C 90 % 1010,5 hPa 0,0 l/m 0 min 0 min 0,0 UV-I 62 W/m 10,3 km/h (2 Bft)
25.10.2013 17:18 17,8 C 16,1 C 90 % 1010,5 hPa 0,0 l/m 0 min 0 min 0,0 UV-I 56 W/m 2,6 km/h (1 Bft)
25.10.2013 17:20 17,8 C 16,1 C 90 % 1010,5 hPa 0,0 l/m 0 min 0 min 0,0 UV-I 51 W/m 10,3 km/h (2 Bft)
25.10.2013 17:22 17,8 C 16,1 C 90 % 1010,4 hPa 0,0 l/m 0 min 0 min 0,0 UV-I 51 W/m 2,6 km/h (1 Bft)
25.10.2013 17:24 17,8 C 16,1 C 90 % 1010,4 hPa 0,0 l/m 0 min 0 min 0,0 UV-I 54 W/m 5,1 km/h (1 Bft)
25.10.2013 17:26 17,8 C 16,1 C 90 % 1010,3 hPa 0,0 l/m 0 min 0 min 0,0 UV-I 58 W/m 5,1 km/h (1 Bft)
25.10.2013 17:28 17,8 C 16,1 C 90 % 1010,2 hPa 0,0 l/m 0 min 0 min 0,0 UV-I 58 W/m 10,3 km/h (2 Bft)
25.10.2013 17:30 17,8 C 16,1 C 90 % 1010,1 hPa 0,0 l/m 0 min 0 min 0,0 UV-I 58 W/m 10,3 km/h (2 Bft)
25.10.2013 17:32 17,8 C 16,1 C 90 % 1010,1 hPa 0,0 l/m 0 min 0 min 0,0 UV-I 49 W/m 10,3 km/h (2 Bft)
25.10.2013 17:34 17,8 C 16,1 C 90 % 1010,2 hPa 0,0 l/m 0 min 0 min 0,0 UV-I 42 W/m 7,7 km/h (2 Bft)
25.10.2013 17:36 17,8 C 16,1 C 90 % 1010,2 hPa 0,0 l/m 0 min 0 min 0,0 UV-I 39 W/m 10,3 km/h (2 Bft)
25.10.2013 17:38 17,8 C 16,1 C 90 % 1010,2 hPa 0,0 l/m 0 min 0 min 0,0 UV-I 33 W/m 10,3 km/h (2 Bft)
25.10.2013 17:40 17,8 C 16,1 C 90 % 1010,1 hPa 0,0 l/m 0 min 0 min 0,0 UV-I 35 W/m 12,9 km/h (3 Bft)
25.10.2013 17:42 17,8 C 16,1 C 90 % 1010,1 hPa 0,0 l/m 0 min 0 min 0,0 UV-I 37 W/m 15,4 km/h (3 Bft)
25.10.2013 17:44 17,7 C 16,1 C 90 % 1010,2 hPa 0,0 l/m 0 min 0 min 0,0 UV-I 35 W/m 10,3 km/h (2 Bft)
25.10.2013 17:46 17,7 C 16,1 C 90 % 1010,2 hPa 0,0 l/m 0 min 0 min 0,0 UV-I 32 W/m 10,3 km/h (2 Bft)
25.10.2013 17:48 17,7 C 16,1 C 90 % 1010,1 hPa 0,0 l/m 0 min 0 min 0,0 UV-I 28 W/m 10,3 km/h (2 Bft)
25.10.2013 17:50 17,7 C 16,1 C 90 % 1010,1 hPa 0,0 l/m 0 min 0 min 0,0 UV-I 21 W/m 7,7 km/h (2 Bft)
25.10.2013 17:52 17,7 C 15,6 C 90 % 1010,1 hPa 0,0 l/m 0 min 0 min 0,0 UV-I 16 W/m 7,7 km/h (2 Bft)
25.10.2013 17:54 17,7 C 15,6 C 90 % 1010,2 hPa 0,0 l/m 0 min 0 min 0,0 UV-I 14 W/m 0,0 km/h (0 Bft)
25.10.2013 17:56 17,7 C 15,6 C 90 % 1010,2 hPa 0,0 l/m 0 min 0 min 0,0 UV-I 11 W/m 7,7 km/h (2 Bft)
25.10.2013 17:58 17,6 C 15,6 C 90 % 1010,3 hPa 0,0 l/m 0 min 0 min 0,0 UV-I 11 W/m 2,6 km/h (1 Bft)
25.10.2013 18:00 17,6 C 15,6 C 90 % 1010,2 hPa 0,0 l/m 0 min 0 min 0,0 UV-I 11 W/m 0,0 km/h (0 Bft)
25.10.2013 18:02 17,6 C 15,6 C 90 % 1010,3 hPa 0,0 l/m 0 min 0 min 0,0 UV-I 14 W/m 0,0 km/h (0 Bft)
25.10.2013 18:06 17,4 C 15,6 C 90 % 1010,1 hPa 0,0 l/m 0 min 0 min 0,0 UV-I 14 W/m 10,3 km/h (2 Bft)
25.10.2013 18:08 17,5 C 15,6 C 90 % 1010,2 hPa 0,0 l/m 0 min 0 min 0,0 UV-I 16 W/m 7,7 km/h (2 Bft)
25.10.2013 18:10 17,4 C 15,6 C 90 % 1010,4 hPa 0,0 l/m 0 min 0 min 0,0 UV-I 16 W/m 2,6 km/h (1 Bft)
25.10.2013 18:12 17,4 C 15,6 C 90 % 1010,3 hPa 0,0 l/m 0 min 0 min 0,0 UV-I 16 W/m 2,6 km/h (1 Bft)
25.10.2013 18:14 17,4 C 15,6 C 90 % 1010,3 hPa 0,0 l/m 0 min 0 min 0,0 UV-I 12 W/m 7,7 km/h (2 Bft)
25.10.2013 18:16 17,4 C 15,6 C 90 % 1010,3 hPa 0,0 l/m 0 min 0 min 0,0 UV-I 9 W/m 7,7 km/h (2 Bft)
25.10.2013 18:18 17,4 C 15,6 C 90 % 1010,3 hPa 0,0 l/m 0 min 0 min 0,0 UV-I 7 W/m 7,7 km/h (2 Bft)
25.10.2013 18:20 17,4 C 15,6 C 90 % 1010,4 hPa 0,0 l/m 0 min 0 min 0,0 UV-I 5 W/m 5,1 km/h (1 Bft)
25.10.2013 18:22 17,4 C 15,6 C 90 % 1010,2 hPa 0,0 l/m 0 min 0 min 0,0 UV-I 0 W/m 0,0 km/h (0 Bft)
25.10.2013 18:24 17,4 C 15,0 C 90 % 1010,3 hPa 0,0 l/m 0 min 0 min 0,0 UV-I 0 W/m 0,0 km/h (0 Bft)
25.10.2013 18:26 17,4 C 15,0 C 90 % 1010,4 hPa 0,0 l/m 0 min 0 min 0,0 UV-I 0 W/m 0,0 km/h (0 Bft)
25.10.2013 18:28 17,4 C 15,0 C 90 % 1010,3 hPa 0,0 l/m 0 min 0 min 0,0 UV-I 0 W/m 0,0 km/h (0 Bft)
25.10.2013 18:30 17,4 C 15,0 C 91 % 1010,4 hPa 0,0 l/m 0 min 0 min 0,0 UV-I 0 W/m 0,0 km/h (0 Bft)
25.10.2013 18:32 17,4 C 15,0 C 91 % 1010,4 hPa 0,0 l/m 0 min 0 min 0,0 UV-I 0 W/m 0,0 km/h (0 Bft)
25.10.2013 18:34 17,3 C 15,0 C 91 % 1010,4 hPa 0,0 l/m 0 min 0 min 0,0 UV-I 0 W/m 0,0 km/h (0 Bft)
25.10.2013 18:36 17,3 C 15,0 C 91 % 1010,4 hPa 0,0 l/m 0 min 2 min 0,0 UV-I 0 W/m 2,6 km/h (1 Bft)
25.10.2013 18:38 17,3 C 15,0 C 91 % 1010,4 hPa 0,0 l/m 0 min 0 min 0,0 UV-I 0 W/m 0,0 km/h (0 Bft)
25.10.2013 18:40 17,3 C 15,0 C 91 % 1010,4 hPa 0,0 l/m 0 min 0 min 0,0 UV-I 0 W/m 0,0 km/h (0 Bft)
25.10.2013 18:42 17,3 C 15,0 C 91 % 1010,4 hPa 0,0 l/m 0 min 0 min 0,0 UV-I 0 W/m 0,0 km/h (0 Bft)
25.10.2013 18:44 17,3 C 15,0 C 91 % 1010,4 hPa 0,0 l/m 0 min 0 min 0,0 UV-I 0 W/m 0,0 km/h (0 Bft)
25.10.2013 18:46 17,3 C 15,0 C 91 % 1010,4 hPa 0,0 l/m 0 min 0 min 0,0 UV-I 0 W/m 5,1 km/h (1 Bft)
25.10.2013 18:48 17,3 C 15,0 C 91 % 1010,3 hPa 0,0 l/m 0 min 0 min 0,0 UV-I 0 W/m 10,3 km/h (2 Bft)
25.10.2013 18:50 17,3 C 15,0 C 91 % 1010,4 hPa 0,0 l/m 0 min 0 min 0,0 UV-I 0 W/m 0,0 km/h (0 Bft)
25.10.2013 18:52 17,3 C 15,0 C 91 % 1010,3 hPa 0,0 l/m 0 min 0 min 0,0 UV-I 0 W/m 5,1 km/h (1 Bft)
25.10.2013 18:54 17,3 C 15,0 C 91 % 1010,4 hPa 0,0 l/m 0 min 0 min 0,0 UV-I 0 W/m 7,7 km/h (2 Bft)
25.10.2013 18:56 17,4 C 15,0 C 91 % 1010,2 hPa 0,0 l/m 0 min 0 min 0,0 UV-I 0 W/m 7,7 km/h (2 Bft)
25.10.2013 18:58 17,5 C 15,0 C 91 % 1010,4 hPa 0,0 l/m 0 min 0 min 0,0 UV-I 0 W/m 10,3 km/h (2 Bft)
25.10.2013 19:00 17,6 C 15,6 C 90 % 1010,4 hPa 0,0 l/m 0 min 0 min 0,0 UV-I 0 W/m 7,7 km/h (2 Bft)
25.10.2013 19:02 17,7 C 15,0 C 90 % 1010,4 hPa 0,0 l/m 0 min 0 min 0,0 UV-I 0 W/m 7,7 km/h (2 Bft)
25.10.2013 19:06 17,8 C 15,6 C 89 % 1010,4 hPa 0,0 l/m 0 min 2 min 0,0 UV-I 0 W/m 15,4 km/h (3 Bft)
25.10.2013 19:08 17,8 C 15,6 C 89 % 1010,5 hPa 0,0 l/m 0 min 2 min 0,0 UV-I 0 W/m 12,9 km/h (3 Bft)
25.10.2013 19:10 17,9 C 15,6 C 89 % 1010,5 hPa 0,0 l/m 0 min 0 min 0,0 UV-I 0 W/m 2,6 km/h (1 Bft)
25.10.2013 19:12 17,9 C 15,6 C 88 % 1010,6 hPa 0,0 l/m 0 min 0 min 0,0 UV-I 0 W/m 12,9 km/h (3 Bft)
25.10.2013 19:14 17,9 C 15,6 C 88 % 1010,5 hPa 0,0 l/m 0 min 2 min 0,0 UV-I 0 W/m 10,3 km/h (2 Bft)
25.10.2013 19:16 18,0 C 15,6 C 88 % 1010,5 hPa 0,0 l/m 0 min 2 min 0,0 UV-I 0 W/m 0,0 km/h (0 Bft)
25.10.2013 19:18 18,1 C 15,0 C 88 % 1010,5 hPa 0,0 l/m 0 min 2 min 0,0 UV-I 0 W/m 2,6 km/h (1 Bft)
25.10.2013 19:20 18,1 C 15,0 C 88 % 1010,6 hPa 0,0 l/m 0 min 2 min 0,0 UV-I 0 W/m 0,0 km/h (0 Bft)
25.10.2013 19:22 18,0 C 15,0 C 88 % 1010,6 hPa 0,2 l/m 0 min 2 min 0,0 UV-I 0 W/m 0,0 km/h (0 Bft)
25.10.2013 19:24 17,9 C 15,0 C 89 % 1010,6 hPa 0,0 l/m 0 min 2 min 0,0 UV-I 0 W/m 5,1 km/h (1 Bft)
25.10.2013 19:26 17,9 C 15,0 C 89 % 1010,5 hPa 0,0 l/m 0 min 0 min 0,0 UV-I 0 W/m 10,3 km/h (2 Bft)
25.10.2013 19:28 17,8 C 15,0 C 89 % 1010,5 hPa 0,0 l/m 0 min 2 min 0,0 UV-I 0 W/m 0,0 km/h (0 Bft)
25.10.2013 19:30 17,7 C 15,0 C 89 % 1010,4 hPa 0,0 l/m 0 min 2 min 0,0 UV-I 0 W/m 5,1 km/h (1 Bft)
25.10.2013 19:32 17,6 C 14,4 C 90 % 1010,5 hPa 0,0 l/m 0 min 2 min 0,0 UV-I 0 W/m 0,0 km/h (0 Bft)
25.10.2013 19:34 17,6 C 14,4 C 90 % 1010,5 hPa 0,0 l/m 0 min 2 min 0,0 UV-I 0 W/m 5,1 km/h (1 Bft)
25.10.2013 19:36 17,5 C 14,4 C 91 % 1010,6 hPa 0,0 l/m 0 min 2 min 0,0 UV-I 0 W/m 0,0 km/h (0 Bft)
25.10.2013 19:38 17,4 C 14,4 C 91 % 1010,6 hPa 0,0 l/m 0 min 0 min 0,0 UV-I 0 W/m 0,0 km/h (0 Bft)
25.10.2013 19:40 17,3 C 14,4 C 91 % 1010,6 hPa 0,0 l/m 0 min 0 min 0,0 UV-I 0 W/m 0,0 km/h (0 Bft)
25.10.2013 19:42 17,3 C 14,4 C 91 % 1010,6 hPa 0,0 l/m 0 min 0 min 0,0 UV-I 0 W/m 5,1 km/h (1 Bft)
25.10.2013 19:44 17,2 C 14,4 C 92 % 1010,6 hPa 0,0 l/m 0 min 2 min 0,0 UV-I 0 W/m 5,1 km/h (1 Bft)
25.10.2013 19:46 17,2 C 14,4 C 92 % 1010,6 hPa 0,0 l/m 0 min 0 min 0,0 UV-I 0 W/m 2,6 km/h (1 Bft)
25.10.2013 19:48 17,2 C 14,4 C 92 % 1010,6 hPa 0,0 l/m 0 min 0 min 0,0 UV-I 0 W/m 2,6 km/h (1 Bft)
25.10.2013 19:50 17,2 C 14,4 C 92 % 1010,7 hPa 0,0 l/m 0 min 2 min 0,0 UV-I 0 W/m 10,3 km/h (2 Bft)
25.10.2013 19:52 17,2 C 14,4 C 92 % 1010,6 hPa 0,0 l/m 0 min 2 min 0,0 UV-I 0 W/m 15,4 km/h (3 Bft)
25.10.2013 19:54 17,2 C 14,4 C 92 % 1010,6 hPa 0,0 l/m 0 min 2 min 0,0 UV-I 0 W/m 7,7 km/h (2 Bft)
25.10.2013 19:56 17,2 C 14,4 C 92 % 1010,7 hPa 0,0 l/m 0 min 2 min 0,0 UV-I 0 W/m 5,1 km/h (1 Bft)
25.10.2013 19:58 17,2 C 14,4 C 92 % 1010,6 hPa 0,0 l/m 0 min 2 min 0,0 UV-I 0 W/m 5,1 km/h (1 Bft)
25.10.2013 20:00 17,2 C 14,4 C 92 % 1010,6 hPa 0,0 l/m 0 min 2 min 0,0 UV-I 0 W/m 7,7 km/h (2 Bft)
25.10.2013 20:02 17,2 C 14,4 C 92 % 1010,6 hPa 0,0 l/m 0 min 0 min 0,0 UV-I 0 W/m 5,1 km/h (1 Bft)
25.10.2013 20:06 17,2 C 14,4 C 92 % 1010,7 hPa 0,0 l/m 0 min 2 min 0,0 UV-I 0 W/m 7,7 km/h (2 Bft)
25.10.2013 20:08 17,2 C 14,4 C 92 % 1010,8 hPa 0,0 l/m 0 min 2 min 0,0 UV-I 0 W/m 7,7 km/h (2 Bft)
25.10.2013 20:10 17,2 C 14,4 C 93 % 1010,8 hPa 0,0 l/m 0 min 2 min 0,0 UV-I 0 W/m 5,1 km/h (1 Bft)
25.10.2013 20:12 17,2 C 14,4 C 93 % 1010,7 hPa 0,0 l/m 0 min 2 min 0,0 UV-I 0 W/m 12,9 km/h (3 Bft)
25.10.2013 20:14 17,2 C 15,0 C 93 % 1010,7 hPa 0,0 l/m 0 min 2 min 0,0 UV-I 0 W/m 7,7 km/h (2 Bft)
25.10.2013 20:16 17,2 C 15,0 C 93 % 1010,7 hPa 0,0 l/m 0 min 0 min 0,0 UV-I 0 W/m 7,7 km/h (2 Bft)
25.10.2013 20:18 17,2 C 15,0 C 93 % 1010,8 hPa 0,0 l/m 0 min 2 min 0,0 UV-I 0 W/m 15,4 km/h (3 Bft)
25.10.2013 20:20 17,2 C 15,0 C 93 % 1010,8 hPa 0,0 l/m 0 min 2 min 0,0 UV-I 0 W/m 5,1 km/h (1 Bft)
25.10.2013 20:22 17,2 C 14,4 C 93 % 1010,8 hPa 0,0 l/m 0 min 2 min 0,0 UV-I 0 W/m 12,9 km/h (3 Bft)
25.10.2013 20:24 17,2 C 14,4 C 93 % 1010,8 hPa 0,0 l/m 0 min 2 min 0,0 UV-I 0 W/m 10,3 km/h (2 Bft)
25.10.2013 20:26 17,2 C 14,4 C 93 % 1010,8 hPa 0,2 l/m 0 min 2 min 0,0 UV-I 0 W/m 20,6 km/h (4 Bft)
25.10.2013 20:28 17,1 C 14,4 C 93 % 1010,8 hPa 0,0 l/m 0 min 2 min 0,0 UV-I 0 W/m 18,0 km/h (3 Bft)
25.10.2013 20:30 17,2 C 14,4 C 92 % 1010,7 hPa 0,0 l/m 0 min 2 min 0,0 UV-I 0 W/m 15,4 km/h (3 Bft)
25.10.2013 20:32 17,2 C 14,4 C 93 % 1010,8 hPa 0,0 l/m 0 min 2 min 0,0 UV-I 0 W/m 15,4 km/h (3 Bft)
25.10.2013 20:34 17,2 C 15,0 C 93 % 1010,9 hPa 0,0 l/m 0 min 2 min 0,0 UV-I 0 W/m 15,4 km/h (3 Bft)
25.10.2013 20:36 17,2 C 14,4 C 93 % 1011,0 hPa 0,0 l/m 0 min 2 min 0,0 UV-I 0 W/m 23,2 km/h (4 Bft)
25.10.2013 20:38 17,2 C 14,4 C 93 % 1011,0 hPa 0,0 l/m 0 min 2 min 0,0 UV-I 0 W/m 7,7 km/h (2 Bft)
25.10.2013 20:40 17,2 C 15,0 C 93 % 1011,2 hPa 0,0 l/m 0 min 2 min 0,0 UV-I 0 W/m 12,9 km/h (3 Bft)
25.10.2013 20:42 17,2 C 14,4 C 93 % 1011,2 hPa 0,0 l/m 0 min 2 min 0,0 UV-I 0 W/m 5,1 km/h (1 Bft)
25.10.2013 20:44 17,1 C 14,4 C 93 % 1011,3 hPa 0,0 l/m 0 min 2 min 0,0 UV-I 0 W/m 7,7 km/h (2 Bft)
25.10.2013 20:46 17,1 C 14,4 C 93 % 1011,2 hPa 0,0 l/m 0 min 2 min 0,0 UV-I 0 W/m 2,6 km/h (1 Bft)
25.10.2013 20:48 17,1 C 14,4 C 93 % 1011,1 hPa 0,2 l/m 0 min 2 min 0,0 UV-I 0 W/m 10,3 km/h (2 Bft)
25.10.2013 20:50 17,1 C 14,4 C 93 % 1011,1 hPa 0,2 l/m 0 min 2 min 0,0 UV-I 0 W/m 5,1 km/h (1 Bft)
25.10.2013 20:52 17,0 C 14,4 C 93 % 1011,2 hPa 0,0 l/m 0 min 2 min 0,0 UV-I 0 W/m 2,6 km/h (1 Bft)
25.10.2013 20:54 16,9 C 14,4 C 93 % 1011,2 hPa 0,2 l/m 0 min 2 min 0,0 UV-I 0 W/m 7,7 km/h (2 Bft)
25.10.2013 20:56 16,9 C 14,4 C 94 % 1011,2 hPa 0,0 l/m 0 min 2 min 0,0 UV-I 0 W/m 12,9 km/h (3 Bft)
25.10.2013 20:58 16,8 C 14,4 C 94 % 1011,2 hPa 0,0 l/m 0 min 2 min 0,0 UV-I 0 W/m 2,6 km/h (1 Bft)
25.10.2013 21:00 16,8 C 14,4 C 94 % 1011,1 hPa 0,0 l/m 0 min 2 min 0,0 UV-I 0 W/m 7,7 km/h (2 Bft)
25.10.2013 21:02 16,7 C 14,4 C 94 % 1011,1 hPa 0,0 l/m 0 min 2 min 0,0 UV-I 0 W/m 2,6 km/h (1 Bft)
25.10.2013 21:06 16,6 C 14,4 C 94 % 1011,1 hPa 0,2 l/m 0 min 2 min 0,0 UV-I 0 W/m 12,9 km/h (3 Bft)
25.10.2013 21:08 16,6 C 14,4 C 95 % 1011,0 hPa 0,0 l/m 0 min 2 min 0,0 UV-I 0 W/m 0,0 km/h (0 Bft)
25.10.2013 21:10 16,5 C 14,4 C 95 % 1011,1 hPa 0,0 l/m 0 min 2 min 0,0 UV-I 0 W/m 0,0 km/h (0 Bft)
25.10.2013 21:12 16,4 C 14,4 C 95 % 1011,0 hPa 0,0 l/m 0 min 2 min 0,0 UV-I 0 W/m 2,6 km/h (1 Bft)
25.10.2013 21:14 16,4 C 14,4 C 95 % 1011,1 hPa 0,0 l/m 0 min 2 min 0,0 UV-I 0 W/m 7,7 km/h (2 Bft)
25.10.2013 21:16 16,3 C 14,4 C 95 % 1011,1 hPa 0,0 l/m 0 min 2 min 0,0 UV-I 0 W/m 2,6 km/h (1 Bft)
25.10.2013 21:18 16,3 C 14,4 C 95 % 1011,1 hPa 0,0 l/m 0 min 2 min 0,0 UV-I 0 W/m 0,0 km/h (0 Bft)
25.10.2013 21:20 16,3 C 14,4 C 95 % 1011,0 hPa 0,0 l/m 0 min 2 min 0,0 UV-I 0 W/m 0,0 km/h (0 Bft)
25.10.2013 21:22 16,2 C 14,4 C 95 % 1011,0 hPa 0,0 l/m 0 min 2 min 0,0 UV-I 0 W/m 0,0 km/h (0 Bft)
25.10.2013 21:24 16,2 C 14,4 C 96 % 1011,1 hPa 0,0 l/m 0 min 0 min 0,0 UV-I 0 W/m 0,0 km/h (0 Bft)
25.10.2013 21:26 16,2 C 14,4 C 96 % 1011,2 hPa 0,0 l/m 0 min 0 min 0,0 UV-I 0 W/m 2,6 km/h (1 Bft)
25.10.2013 21:28 16,2 C 14,4 C 96 % 1011,2 hPa 0,0 l/m 0 min 2 min 0,0 UV-I 0 W/m 0,0 km/h (0 Bft)
25.10.2013 21:30 16,1 C 14,4 C 96 % 1011,4 hPa 0,0 l/m 0 min 2 min 0,0 UV-I 0 W/m 2,6 km/h (1 Bft)
25.10.2013 21:32 16,1 C 14,4 C 96 % 1011,4 hPa 0,0 l/m 0 min 0 min 0,0 UV-I 0 W/m 2,6 km/h (1 Bft)
25.10.2013 21:34 16,1 C 14,4 C 96 % 1011,4 hPa 0,0 l/m 0 min 0 min 0,0 UV-I 0 W/m 18,0 km/h (3 Bft)
25.10.2013 21:36 16,1 C 14,4 C 96 % 1011,3 hPa 0,0 l/m 0 min 2 min 0,0 UV-I 0 W/m 7,7 km/h (2 Bft)
25.10.2013 21:38 16,1 C 14,4 C 96 % 1011,3 hPa 0,0 l/m 0 min 0 min 0,0 UV-I 0 W/m 2,6 km/h (1 Bft)
25.10.2013 21:40 16,1 C 14,4 C 96 % 1011,3 hPa 0,0 l/m 0 min 0 min 0,0 UV-I 0 W/m 10,3 km/h (2 Bft)
25.10.2013 21:42 16,1 C 14,4 C 96 % 1011,3 hPa 0,0 l/m 0 min 2 min 0,0 UV-I 0 W/m 7,7 km/h (2 Bft)
25.10.2013 21:44 16,1 C 14,4 C 96 % 1011,2 hPa 0,2 l/m 0 min 2 min 0,0 UV-I 0 W/m 0,0 km/h (0 Bft)
25.10.2013 21:46 16,1 C 14,4 C 97 % 1011,0 hPa 0,0 l/m 0 min 2 min 0,0 UV-I 0 W/m 5,1 km/h (1 Bft)
25.10.2013 21:48 16,1 C 14,4 C 97 % 1010,9 hPa 0,0 l/m 0 min 2 min 0,0 UV-I 0 W/m 5,1 km/h (1 Bft)
25.10.2013 21:50 16,1 C 14,4 C 97 % 1010,9 hPa 0,0 l/m 0 min 2 min 0,0 UV-I 0 W/m 0,0 km/h (0 Bft)
25.10.2013 21:52 16,1 C 14,4 C 97 % 1010,9 hPa 0,0 l/m 0 min 2 min 0,0 UV-I 0 W/m 0,0 km/h (0 Bft)
25.10.2013 21:54 16,1 C 14,4 C 97 % 1011,0 hPa 0,0 l/m 0 min 2 min 0,0 UV-I 0 W/m 0,0 km/h (0 Bft)
25.10.2013 21:56 16,1 C 14,4 C 97 % 1011,0 hPa 0,0 l/m 0 min 2 min 0,0 UV-I 0 W/m 2,6 km/h (1 Bft)
25.10.2013 21:58 16,1 C 14,4 C 97 % 1010,9 hPa 0,0 l/m 0 min 0 min 0,0 UV-I 0 W/m 0,0 km/h (0 Bft)
25.10.2013 22:00 16,1 C 14,4 C 97 % 1011,0 hPa 0,0 l/m 0 min 0 min 0,0 UV-I 0 W/m 0,0 km/h (0 Bft)
25.10.2013 22:02 16,1 C 14,4 C 97 % 1010,9 hPa 0,0 l/m 0 min 2 min 0,0 UV-I 0 W/m 2,6 km/h (1 Bft)
25.10.2013 22:06 16,1 C 14,4 C 97 % 1011,1 hPa 0,0 l/m 0 min 2 min 0,0 UV-I 0 W/m 2,6 km/h (1 Bft)
25.10.2013 22:08 16,1 C 14,4 C 97 % 1011,1 hPa 0,0 l/m 0 min 2 min 0,0 UV-I 0 W/m 0,0 km/h (0 Bft)
25.10.2013 22:10 16,1 C 14,4 C 97 % 1011,2 hPa 0,0 l/m 0 min 0 min 0,0 UV-I 0 W/m 0,0 km/h (0 Bft)
25.10.2013 22:12 16,1 C 14,4 C 97 % 1011,4 hPa 0,0 l/m 0 min 0 min 0,0 UV-I 0 W/m 0,0 km/h (0 Bft)
25.10.2013 22:14 16,1 C 14,4 C 97 % 1011,4 hPa 0,0 l/m 0 min 0 min 0,0 UV-I 0 W/m 0,0 km/h (0 Bft)
25.10.2013 22:16 16,1 C 14,4 C 97 % 1011,4 hPa 0,0 l/m 0 min 0 min 0,0 UV-I 0 W/m 0,0 km/h (0 Bft)
25.10.2013 22:18 16,1 C 14,4 C 97 % 1011,4 hPa 0,0 l/m 0 min 2 min 0,0 UV-I 0 W/m 0,0 km/h (0 Bft)
25.10.2013 22:20 16,1 C 14,4 C 97 % 1011,3 hPa 0,0 l/m 0 min 0 min 0,0 UV-I 0 W/m 7,7 km/h (2 Bft)
25.10.2013 22:22 16,1 C 14,4 C 98 % 1011,3 hPa 0,0 l/m 0 min 2 min 0,0 UV-I 0 W/m 10,3 km/h (2 Bft)
25.10.2013 22:24 16,1 C 14,4 C 98 % 1011,4 hPa 0,0 l/m 0 min 0 min 0,0 UV-I 0 W/m 5,1 km/h (1 Bft)
25.10.2013 22:26 16,1 C 14,4 C 98 % 1011,5 hPa 0,0 l/m 0 min 2 min 0,0 UV-I 0 W/m 0,0 km/h (0 Bft)
25.10.2013 22:28 16,1 C 14,4 C 98 % 1011,4 hPa 0,0 l/m 0 min 0 min 0,0 UV-I 0 W/m 0,0 km/h (0 Bft)
25.10.2013 22:30 16,1 C 14,4 C 98 % 1011,4 hPa 0,0 l/m 0 min 2 min 0,0 UV-I 0 W/m 0,0 km/h (0 Bft)
25.10.2013 22:32 16,1 C 14,4 C 98 % 1011,3 hPa 0,0 l/m 0 min 2 min 0,0 UV-I 0 W/m 7,7 km/h (2 Bft)
25.10.2013 22:34 16,1 C 14,4 C 98 % 1011,3 hPa 0,0 l/m 0 min 2 min 0,0 UV-I 0 W/m 0,0 km/h (0 Bft)
25.10.2013 22:36 16,1 C 14,4 C 98 % 1011,2 hPa 0,0 l/m 0 min 2 min 0,0 UV-I 0 W/m 5,1 km/h (1 Bft)
25.10.2013 22:38 16,1 C 14,4 C 98 % 1011,2 hPa 0,0 l/m 0 min 2 min 0,0 UV-I 0 W/m 0,0 km/h (0 Bft)
25.10.2013 22:40 16,1 C 14,4 C 98 % 1011,5 hPa 0,0 l/m 0 min 2 min 0,0 UV-I 0 W/m 0,0 km/h (0 Bft)
25.10.2013 22:42 16,1 C 14,4 C 98 % 1011,5 hPa 0,0 l/m 0 min 2 min 0,0 UV-I 0 W/m 0,0 km/h (0 Bft)
25.10.2013 22:44 16,1 C 14,4 C 98 % 1011,5 hPa 0,0 l/m 0 min 2 min 0,0 UV-I 0 W/m 0,0 km/h (0 Bft)
25.10.2013 22:46 16,1 C 14,4 C 98 % 1011,5 hPa 0,0 l/m 0 min 2 min 0,0 UV-I 0 W/m 0,0 km/h (0 Bft)
25.10.2013 22:48 16,1 C 14,4 C 98 % 1011,5 hPa 0,0 l/m 0 min 2 min 0,0 UV-I 0 W/m 2,6 km/h (1 Bft)
25.10.2013 22:50 16,1 C 14,4 C 98 % 1011,5 hPa 0,0 l/m 0 min 2 min 0,0 UV-I 0 W/m 0,0 km/h (0 Bft)
25.10.2013 22:52 16,1 C 14,4 C 98 % 1011,3 hPa 0,2 l/m 0 min 2 min 0,0 UV-I 0 W/m 0,0 km/h (0 Bft)
25.10.2013 22:54 16,1 C 13,9 C 98 % 1011,1 hPa 0,0 l/m 0 min 2 min 0,0 UV-I 0 W/m 0,0 km/h (0 Bft)
25.10.2013 22:56 16,1 C 14,4 C 98 % 1011,0 hPa 0,0 l/m 0 min 2 min 0,0 UV-I 0 W/m 0,0 km/h (0 Bft)
25.10.2013 22:58 16,0 C 13,9 C 98 % 1011,0 hPa 0,0 l/m 0 min 2 min 0,0 UV-I 0 W/m 0,0 km/h (0 Bft)
25.10.2013 23:00 16,0 C 13,9 C 98 % 1011,0 hPa 0,0 l/m 0 min 2 min 0,0 UV-I 0 W/m 0,0 km/h (0 Bft)
25.10.2013 23:02 16,0 C 13,9 C 98 % 1011,0 hPa 0,0 l/m 0 min 2 min 0,0 UV-I 0 W/m 0,0 km/h (0 Bft)
25.10.2013 23:06 15,9 C 13,9 C 98 % 1011,0 hPa 0,0 l/m 0 min 2 min 0,0 UV-I 0 W/m 0,0 km/h (0 Bft)
25.10.2013 23:08 15,9 C 13,9 C 98 % 1011,0 hPa 0,0 l/m 0 min 2 min 0,0 UV-I 0 W/m 0,0 km/h (0 Bft)
25.10.2013 23:10 15,9 C 13,9 C 98 % 1010,9 hPa 0,0 l/m 0 min 2 min 0,0 UV-I 0 W/m 0,0 km/h (0 Bft)
25.10.2013 23:12 15,9 C 13,9 C 98 % 1010,9 hPa 0,0 l/m 0 min 2 min 0,0 UV-I 0 W/m 0,0 km/h (0 Bft)
25.10.2013 23:14 15,9 C 13,9 C 98 % 1010,9 hPa 0,0 l/m 0 min 2 min 0,0 UV-I 0 W/m 0,0 km/h (0 Bft)
25.10.2013 23:16 15,9 C 13,9 C 98 % 1011,0 hPa 0,0 l/m 0 min 2 min 0,0 UV-I 0 W/m 0,0 km/h (0 Bft)
25.10.2013 23:18 15,9 C 13,9 C 98 % 1011,1 hPa 0,2 l/m 0 min 2 min 0,0 UV-I 0 W/m 0,0 km/h (0 Bft)
25.10.2013 23:20 15,8 C 13,9 C 98 % 1011,1 hPa 0,0 l/m 0 min 2 min 0,0 UV-I 0 W/m 0,0 km/h (0 Bft)
25.10.2013 23:22 15,8 C 13,9 C 98 % 1011,1 hPa 0,0 l/m 0 min 2 min 0,0 UV-I 0 W/m 0,0 km/h (0 Bft)
25.10.2013 23:24 15,8 C 13,9 C 98 % 1011,0 hPa 0,0 l/m 0 min 2 min 0,0 UV-I 0 W/m 0,0 km/h (0 Bft)
25.10.2013 23:26 15,8 C 13,9 C 98 % 1011,0 hPa 0,0 l/m 0 min 2 min 0,0 UV-I 0 W/m 0,0 km/h (0 Bft)
25.10.2013 23:28 15,8 C 13,9 C 98 % 1010,9 hPa 0,0 l/m 0 min 2 min 0,0 UV-I 0 W/m 0,0 km/h (0 Bft)
25.10.2013 23:30 15,8 C 13,9 C 98 % 1010,9 hPa 0,0 l/m 0 min 2 min 0,0 UV-I 0 W/m 0,0 km/h (0 Bft)
25.10.2013 23:32 15,8 C 13,9 C 98 % 1011,1 hPa 0,0 l/m 0 min 2 min 0,0 UV-I 0 W/m 0,0 km/h (0 Bft)
25.10.2013 23:34 15,8 C 13,9 C 98 % 1011,1 hPa 0,0 l/m 0 min 2 min 0,0 UV-I 0 W/m 0,0 km/h (0 Bft)
25.10.2013 23:36 15,8 C 13,9 C 98 % 1011,1 hPa 0,2 l/m 0 min 2 min 0,0 UV-I 0 W/m 0,0 km/h (0 Bft)
25.10.2013 23:38 15,8 C 13,9 C 98 % 1011,1 hPa 0,0 l/m 0 min 2 min 0,0 UV-I 0 W/m 0,0 km/h (0 Bft)
25.10.2013 23:40 15,8 C 13,9 C 98 % 1011,2 hPa 0,0 l/m 0 min 2 min 0,0 UV-I 0 W/m 0,0 km/h (0 Bft)
25.10.2013 23:42 15,8 C 13,9 C 98 % 1011,2 hPa 0,0 l/m 0 min 2 min 0,0 UV-I 0 W/m 0,0 km/h (0 Bft)
25.10.2013 23:44 15,7 C 13,9 C 98 % 1011,1 hPa 0,0 l/m 0 min 2 min 0,0 UV-I 0 W/m 0,0 km/h (0 Bft)
25.10.2013 23:46 15,7 C 13,9 C 98 % 1011,2 hPa 0,0 l/m 0 min 2 min 0,0 UV-I 0 W/m 0,0 km/h (0 Bft)
25.10.2013 23:48 15,7 C 13,9 C 98 % 1011,4 hPa 0,0 l/m 0 min 2 min 0,0 UV-I 0 W/m 0,0 km/h (0 Bft)
25.10.2013 23:50 15,7 C 13,9 C 98 % 1011,5 hPa 0,0 l/m 0 min 2 min 0,0 UV-I 0 W/m 0,0 km/h (0 Bft)
25.10.2013 23:52 15,7 C 13,9 C 98 % 1011,5 hPa 0,0 l/m 0 min 2 min 0,0 UV-I 0 W/m 0,0 km/h (0 Bft)
25.10.2013 23:54 15,7 C 13,9 C 98 % 1011,4 hPa 0,0 l/m 0 min 2 min 0,0 UV-I 0 W/m 0,0 km/h (0 Bft)
25.10.2013 23:56 15,6 C 13,9 C 98 % 1011,5 hPa 0,0 l/m 0 min 2 min 0,0 UV-I 0 W/m 0,0 km/h (0 Bft)
25.10.2013 23:58 15,7 C 13,9 C 98 % 1011,4 hPa 0,0 l/m 0 min 2 min 0,0 UV-I 0 W/m 0,0 km/h (0 Bft)
_ Min-Zeit 00:00 00:00 19:12 14:58 - - - - - 00:00
Minimum _ 10,3 C 8,3 C 88 % 1010,1 hPa - - - - - 0,0 km/h (0 Bft)
_ Max-Zeit 19:18 15:28 00:00 00:00 11:46 12:58 10:40 13:36 13:06 08:12
Maximum _ 18,1 C 16,7 C 98 % 1016,3 hPa 0,2 l/m 2 min 2 min 0,8 UV-I 438 W/m 33,5 km/h
O-SO (5 Bft)
Durchschnitt _ 14,5 C 12,9 C 93 % 1011,9 hPa #2,4 l/m #32 min. #5:34 h 0,6 UV-I 98 W/m 9,7 km/h (2 Bft)
© 2013 W. Hausmann